     2              OBSERVATION DATA    GPS                 RINEX VERSION / TYPE
teqc 2000Feb29 Duncan Agnew 20000707 21:03:52UTC            PGM / RUN BY / DATE
                                                            COMMENT
L2: 1 -> 1; 5 -> 5; 60 -> 9                                 COMMENT
L2: 1 -> 1; 5 -> 5; 60 -> 9                                 COMMENT
L2: 1 -> 1; 5 -> 5; 60 -> 9                                 COMMENT
L2: 1 -> 1; 5 -> 5; 60 -> 9                                 COMMENT
L2: 1 -> 1; 5 -> 5; 60 -> 9                                 COMMENT
Original Marker Name: 6498                                  COMMENT
Campaign Name: USMC MCAGCC                                  COMMENT
4-Character Station Name: GYPS                              COMMENT
6-Character Antenna Code: TRMSST                            COMMENT
Vertical Measurement Point: BGP                             COMMENT
Vertical Offset to Rinex Ref. Point: 0.0597                 COMMENT
Radial Measurement Point: NGP                               COMMENT
Radial Offset to Rinex Ref. Point: 0.2334                   COMMENT
Antenna Height from Field Measurement: 1.0600 m             COMMENT
Additional Antenna Identification Info.:                    COMMENT
Model 14532.00                                              COMMENT
Original XYZ: -2325211.2234 -4729103.0739 3582222.6024      COMMENT
New XYZ position is based on association with SCEC monument COMMENT
E1F2H7D2+0011. Position of that monument is believed to be  COMMENT
valid to within 1 m horizontally; vertical accuracy         COMMENT
should be no worse than 3-times this value.                 COMMENT
                                                            COMMENT
Revised Rinex header created by UCSD GPS archive for        COMMENT
GSAC on 10-Aug-2000 (2000:223) 22:22:50 GMT                 COMMENT
For assistance contact dagnew@ucsd.edu                      COMMENT
or anderson@python.ucsd.edu                                 COMMENT
                                                            COMMENT
GYPSUM                                                      MARKER NAME
____0001                                                    MARKER NUMBER
-Unknown- 11TH ARTILLERY US MARINE CORPS                    OBSERVER / AGENCY
16498 TRIMBLE MSGR NP 7.57; SP 3.53                         REC # / TYPE / VERS
S/N UNKNOWN TR 4000SST L1/L2 GEO                            ANT # / TYPE
 -2325209.9020 -4729100.7147  3582223.1253                  APPROX POSITION XYZ
        0.9743        0.0000        0.0000                  ANTENNA: DELTA H/E/N
     1     1     0                                          WAVELENGTH FACT L1/2
     6    L1    L2    P1    P2    S1    S2                  # / TYPES OF OBSERV
     0                                                      INTERVAL
  1999     3     3     1    45   15.000000                  TIME OF FIRST OBS
  1999     3     3     2    45    0.000000                  TIME OF LAST OBS
                                                            END OF HEADER
 99  3  3  1 45 15.0000000  0  6G17G 5G30G 6G10G24
  -5829807.99515  -4519267.97715  23436062.492    23436069.508           9.250
        10.500
  10574620.98816   8239965.09416  22282147.453    22282153.461          15.000
        15.250
  -7464724.33516  -6716473.35716  20900214.008    20900219.020          18.750
        21.750
 -13734637.07816 -10683464.20416  21380291.578    21380297.113          19.250
        19.250
  -4529675.37016  -4128373.47416  21537138.656    21537144.621          18.250
        17.500
  16786288.38015  13080920.93215  23026670.789    23026678.000          11.750
        11.500
 99  3  3  1 45 30.0000000  0  6G17G 5G30G 6G10G24
  -5859384.192 5  -4542314.307 5  23430434.047    23430441.156           9.250
        10.500
  10626139.652 6   8280109.509 6  22291951.398    22291957.313          15.250
        15.250
  -7443790.050 6  -6700160.915 6  20904197.711    20904202.605          18.750
        21.750
 -13754969.382 6 -10699307.547 6  21376422.477    21376427.977          19.500
        19.500
  -4501164.771 6  -4106157.418 6  21542564.016    21542570.016          18.250
        17.500
  16828630.263 5  13113914.617 5  23034728.227    23034735.352          11.750
        11.500
 99  3  3  1 45 45.0000000  0  6G17G 5G30G 6G10G24
  -5888912.742 5  -4565323.519 5  23424815.180    23424822.074           9.250
        10.500
  10677731.013 6   8320310.558 6  22301768.813    22301774.746          15.000
        15.250
  -7422702.328 6  -6683728.924 6  20908210.664    20908215.680          19.000
        21.750
 -13775257.386 6 -10715116.361 6  21372561.828    21372567.316          19.500
        19.500
  -4472518.695 6  -4083835.798 6  21548015.188    21548021.117          18.250
        17.500
  16870981.078 5  13146915.247 5  23042787.414    23042794.641          11.750
        11.500
 99  3  3  1 46  0.0000000  4  1
0.000                                                       COMMENT
 99  3  3  1 46  0.0000000  0  6G17G 5G30G 6G10G24
  -5918399.006 5  -4588299.780 5  23419203.938    23419211.336           9.250
        10.500
  10729389.156 6   8360563.650 6  22311599.000    22311605.059          15.000
        15.250
  -7401463.532 6  -6667179.208 6  20912252.266    20912257.238          18.750
        21.750
 -13795500.905 6 -10730890.525 6  21368709.539    21368715.047          19.500
        19.500
  -4443742.178 6  -4061412.523 6  21553491.203    21553497.074          18.000
        17.500
  16913340.605 5  13179922.671 5  23050848.109    23050855.262          11.500
        11.500
 99  3  3  1 46 15.0000000  0  6G17G 5G30G 6G10G24
  -5947838.169 5  -4611239.329 5  23413601.906    23413609.023           9.500
        11.000
  10781121.187 6   8400874.311 6  22321443.180    22321449.203          14.750
        15.000
  -7380071.413 6  -6650510.021 6  20916322.977    20916327.988          18.750
        21.500
 -13815692.725 6 -10746624.394 6  21364866.977    21364872.512          19.500
        19.500
  -4414831.611 6  -4038884.802 6  21558992.703    21558998.625          18.250
        17.250
  16955714.063 5  13212940.947 5  23058911.461    23058918.684          11.500
        11.500
 99  3  3  1 46 30.0000000  4  1
1.060                                                       COMMENT
 99  3  3  1 46 30.0000000  0  6G17G 5G30G 6G10G24
  -5977233.638 5  -4634144.850 5  23408008.000    23408014.973           9.500
        10.750
  10832928.148 6   8441243.375 6  22331301.758    22331307.648          14.750
        15.000
  -7358532.431 6  -6633726.390 6  20920421.688    20920426.664          18.750
        21.500
 -13835835.523 6 -10762320.058 6  21361033.914    21361039.422          19.250
        19.500
  -4385789.678 6  -4016254.725 6  21564519.133    21564525.074          18.000
        17.250
  16998095.320 5  13245965.311 5  23066976.375    23066983.457          11.500
        11.500
 99  3  3  1 46 45.0000000  0  6G17G 5G30G 6G10G24
  -6006585.835 5  -4657016.640 5  23402422.547    23402429.703           9.250
        11.000
  10884808.723 6   8481669.793 6  22341174.258    22341180.262          14.750
        14.750
  -7336848.202 6  -6616829.584 6  20924548.047    20924553.039          18.750
        21.500
 -13855929.796 6 -10777977.925 6  21357210.141    21357215.648          19.500
        19.500
  -4356620.703 6  -3993525.642 6  21570069.773    21570075.762          18.000
        17.500
  17040479.710 5  13278992.104 5  23075041.672    23075048.941          11.250
        11.250
 99  3  3  1 47  0.0000000  0  6G17G 5G30G 6G10G24
  -6035890.555 5  -4679851.435 5  23396846.078    23396852.898           9.250
        11.000
  10936769.211 6   8522158.486 6  22351061.977    22351067.977          14.500
        14.750
  -7315017.334 6  -6599818.509 6  20928702.367    20928707.414          18.750
        21.500
 -13875971.452 6 -10793594.777 6  21353396.359    21353401.852          19.250
        19.500
  -4327321.976 6  -3970695.457 6  21575645.203    21575651.258          18.000
        17.500
  17082869.766 5  13312023.321 5  23083108.289    23083115.586          11.250
        11.250
 99  3  3  1 47 15.0000000  0  6G17G 5G30G 6G10G24
  -6065147.826 5  -4702649.254 5  23391278.594    23391285.461           9.500
        11.000
  10988810.015 6   8562709.756 6  22360965.070    22360971.090          14.500
        14.750
  -7293039.261 6  -6582692.730 6  20932884.688    20932889.648          18.750
        21.500
 -13895962.887 6 -10809172.501 6  21349592.086    21349597.617          19.500
        19.500
  -4297893.617 6  -3947764.263 6  21581245.172    21581251.141          18.000
        17.500
  17125265.036 5  13345058.596 5  23091175.906    23091183.113          11.250
        11.250
 99  3  3  1 47 30.0000000  0  6G17G 5G30G 6G10G24
  -6094356.450 5  -4725409.181 5  23385719.992    23385726.938           9.250
        11.000
  11040929.092 6   8603322.015 6  22370882.945    22370889.102          14.250
        14.750
  -7270912.783 6  -6565451.319 6  20937095.078    20937100.168          18.750
        21.500
 -13915903.691 6 -10824710.780 6  21345797.391    21345802.910          19.250
        19.500
  -4268333.901 6  -3924730.711 6  21586870.211    21586876.242          18.000
        17.500
  17167667.372 5  13378099.374 5  23099244.789    23099252.145          11.250
        11.250
 99  3  3  1 47 45.0000000  0  6G17G 5G30G 6G10G24
  -6123513.574 5  -4748128.964 5  23380171.727    23380178.617           9.000
        11.000
  11093119.295 6   8643989.703 6  22380814.398    22380820.539          14.250
        14.750
  -7248640.055 6  -6548095.943 6  20941333.383    20941338.371          18.750
        21.250
 -13935795.300 6 -10840210.721 6  21342012.250    21342017.828          19.500
        19.500
  -4238645.727 6  -3901597.064 6  21592519.625    21592525.652          18.000
        17.500
  17210075.073 5  13411144.332 5  23107314.859    23107322.031          11.000
        11.250
 99  3  3  1 48  0.0000000  0  6G17G 5G30G 6G10G24
  -6152618.420 5  -4770808.015 5  23374632.977    23374640.055           9.250
        11.000
  11145378.770 6   8684711.372 6  22390759.078    22390765.277          14.500
        14.500
  -7226223.084 6  -6530628.169 6  20945599.289    20945604.293          18.750
        21.250
 -13955635.526 6 -10855670.616 6  21338236.719    21338242.266          19.500
        19.750
  -4208831.258 6  -3878365.007 6  21598193.188    21598199.297          18.000
        17.500
  17252488.517 5  13444193.767 5  23115385.703    23115393.109          11.000
        11.250
 99  3  3  1 48 15.0000000  0  6G17G 5G30G 6G10G24
  -6181671.621 5  -4793446.816 5  23369104.336    23369111.332           9.000
        11.000
  11197705.254 6   8725485.255 6  22400716.438    22400722.473          14.250
        14.250
  -7203665.750 6  -6513051.019 6  20949891.617    20949896.688          18.750
        21.250
 -13975427.869 6 -10871093.208 6  21334470.344    21334475.980          19.500
        19.750
  -4178891.519 6  -3855035.331 6  21603890.453    21603896.598          18.000
        17.500
  17294904.714 5  13477245.360 5  23123457.117    23123464.391          11.000
        11.000
 99  3  3  1 48 30.0000000  0  6G17G 5G30G 6G10G24
  -6210665.445 5  -4816039.358 5  23363587.000    23363594.031           9.000
        11.000
  11250105.464 6   8766316.592 6  22410687.867    22410693.887          14.250
        14.000
  -7180961.879 6  -6495359.681 6  20954212.125    20954217.102          18.750
        21.250
 -13995168.138 6 -10886475.216 6  21330713.898    21330719.547          19.500
        20.000
  -4148819.151 6  -3831602.312 6  21609612.953    21609619.164          18.000
        17.750
  17337328.039 5  13510302.493 5  23131530.016    23131537.223          11.000
        11.000
 99  3  3  1 48 45.0000000  0  6G17G 5G30G 6G10G24
  -6239601.473 5  -4838586.870 5  23358080.688    23358087.570           9.000
        11.000
  11302575.245 6   8807202.133 6  22420672.516    22420678.555          14.000
        14.000
  -7158110.182 6  -6477553.166 6  20958560.508    20958565.441          18.750
        21.250
 -14014858.845 6 -10901818.606 6  21326966.984    21326972.551          19.500
        20.000
  -4118614.015 6  -3808065.835 6  21615360.961    21615367.098          18.250
        17.750
  17379757.394 5  13543364.329 5  23139604.125    23139611.352          11.000
        11.000
 99  3  3  1 49  0.0000000  0  6G17G 5G30G 6G10G24
  -6268483.705 5  -4861092.459 5  23352584.320    23352591.422           9.250
        11.250
  11355108.463 6   8848137.101 6  22430669.414    22430675.352          14.000
        14.000
  -7135115.221 6  -6459635.005 6  20962936.453    20962941.426          18.750
        21.250
 -14034505.904 6 -10917127.987 6  21323228.203    21323233.742          19.500
        19.750
  -4088279.335 6  -3784428.414 6  21621133.398    21621139.500          18.250
        17.750
  17422190.794 5  13576429.315 5  23147678.844    23147686.297          11.000
        11.000
 99  3  3  1 49 15.0000000  0  6G17G 5G30G 6G10G24
  -6297311.038 5  -4883555.273 5  23347098.719    23347105.609           9.500
        11.000
  11407704.359 6   8889120.920 6  22440677.977    22440684.156          14.250
        14.250
  -7111977.031 6  -6441605.241 6  20967339.414    20967344.586          18.500
        21.250
 -14054109.542 7 -10932403.525 6  21319497.773    21319503.164          20.000
        19.750
  -4057809.716 6  -3760685.848 6  21626931.703    21626937.715          18.250
        17.750
  17464631.672 5  13609500.128 5  23155755.336    23155762.676          11.000
        11.000
 99  3  3  1 49 30.0000000  0  6G17G 5G30G 6G10G24
  -6326082.746 5  -4905974.741 5  23341623.766    23341630.816           9.500
        11.000
  11460359.823 6   8930151.147 6  22450697.977    22450704.051          14.250
        14.250
  -7088694.626 6  -6423463.104 6  20971770.023    20971775.016          18.500
        21.250
 -14073667.332 7 -10947643.349 6  21315776.133    21315781.496          20.000
        19.750
  -4027203.472 6  -3736836.821 6  21632755.773    21632761.953          18.250
        17.750
  17507080.929 5  13642577.479 5  23163833.094    23163840.414          10.750
        11.000
 99  3  3  1 49 45.0000000  0  6G17G 5G30G 6G10G24
  -6354794.837 5  -4928347.747 5  23336159.859    23336166.875           9.500
        11.250
  11513076.183 6   8971228.821 6  22460729.563    22460735.656          14.000
        14.250
  -7065267.318 6  -6405208.059 6  20976228.031    20976233.129          18.500
        21.250
 -14093172.005 7 -10962841.786 6  21312064.469    21312069.922          20.000
        20.000
  -3996458.286 6  -3712879.526 6  21638606.406    21638612.551          18.000
        17.750
  17549544.374 5  13675665.873 5  23171913.852    23171921.039          11.000
        11.000
 99  3  3  1 50  0.0000000  0  6G17G 5G30G 6G10G24
  -6383455.743 5  -4950680.889 5  23330705.852    23330713.082           9.500
        11.250
  11565848.197 6   9012349.873 6  22470771.742    22470777.824          14.000
        14.250
  -7041705.465 6  -6386848.168 6  20980711.609    20980716.715          18.500
        21.250
 -14112631.093 7 -10978004.687 6  21308361.539    21308367.027          20.000
        20.000
  -3965582.733 6  -3688820.653 6  21644481.922    21644488.004          18.250
        17.750
  17592016.690 5  13708761.187 5  23179995.750    23180002.957          11.000
        11.000
 99  3  3  1 50 15.0000000  0  6G17G 5G30G 6G10G24
  -6412063.834 5  -4972972.860 5  23325261.977    23325268.941           9.500
        11.500
  11618682.078 6   9053519.129 6  22480825.617    22480831.723          13.750
        14.000
  -7018004.869 6  -6368380.165 6  20985221.797    20985226.754          18.500
        21.250
 -14132040.287 7 -10993128.726 6  21304668.102    21304673.605          20.000
        20.000
  -3934567.390 6  -3664652.842 6  21650383.922    21650390.035          18.250
        17.750
  17634501.863 5  13741866.512 5  23188080.367    23188087.621          11.000
        10.750
 99  3  3  1 50 30.0000000  0  6G17G 5G30G 6G10G24
  -6440620.064 5  -4995224.412 5  23319828.008    23319835.125           9.500
        11.500
  11671578.243 6   9094736.928 6  22490891.484    22490897.527          13.500
        14.000
  -6994167.451 6  -6349805.550 6  20989757.797    20989762.785          18.500
        21.250
 -14151402.232 6 -11008215.937 6  21300983.570    21300989.082          19.750
        20.000
  -3903413.955 6  -3640377.432 6  21656312.250    21656318.363          18.250
        17.750
  17676996.062 5  13774978.880 5  23196166.859    23196174.063          11.000
        11.000
 99  3  3  1 50 45.0000000  0  6G17G 5G30G 6G10G24
  -6469129.946 5  -5017439.866 5  23314402.758    23314409.691           9.750
        11.750
  11724534.925 6   9136001.869 6  22500968.789    22500974.746          13.750
        14.000
  -6970196.054 6  -6331126.539 6  20994319.328    20994324.402          18.500
        21.250
 -14170719.213 7 -11023268.114 6  21297307.797    21297313.254          20.000
        20.250
  -3872127.619 6  -3615998.468 6  21662265.813    21662271.984          18.250
        17.750
  17719496.147 5  13808095.833 5  23204254.273    23204261.648          10.750
        11.000
 99  3  3  1 51  0.0000000  0  6G17G 5G30G 6G10G24
  -6497593.385 5  -5039619.127 5  23308986.156    23308993.215           9.750
        11.750
  11777555.314 6   9177316.463 6  22511058.320    22511064.465          14.000
        14.250
  -6946091.036 6  -6312343.404 6  20998906.359    20998911.480          18.500
        21.250
 -14189989.605 7 -11038283.989 6  21293640.672    21293646.137          20.000
        20.250
  -3840708.045 6  -3591515.679 6  21668244.742    21668250.836          18.250
        17.750
  17762003.246 5  13841218.254 5  23212343.156    23212350.445          10.750
        11.000
 99  3  3  1 51 15.0000000  0  6G17G 5G30G 6G10G24
  -6526008.819 5  -5061760.975 5  23303578.961    23303585.758          10.000
        11.500
  11830643.846 6   9218684.149 6  22521160.703    22521166.699          14.000
        14.250
  -6921852.233 6  -6293456.022 6  21003518.984    21003523.977          18.500
        21.500
 -14209208.468 7 -11053259.716 6  21289983.469    21289988.879          20.250
        20.250
  -3809154.228 6  -3566928.286 6  21674249.078    21674255.285          18.000
        17.750
  17804518.990 5  13874347.395 5  23220433.719    23220440.969          11.000
        11.000
 99  3  3  1 51 30.0000000  0  6G17G 5G30G 6G10G24
  -6554378.879 5  -5083867.475 5  23298180.367    23298187.180          10.000
        11.750
  11883799.219 6   9260103.918 6  22531275.797    22531281.957          13.500
        14.000
  -6897482.496 6  -6274466.613 6  21008156.422    21008161.395          18.750
        21.250
 -14228376.466 7 -11068195.802 6  21286335.961    21286341.348          20.250
        20.250
  -3777472.056 6  -3542240.870 6  21680278.039    21680284.121          18.000
        17.500
  17847038.225 5  13907479.275 5  23228524.898    23228531.965          11.000
        11.000
 99  3  3  1 51 45.0000000  0  6G17G 5G30G 6G10G24
  -6582706.544 5  -5105940.935 5  23292789.797    23292796.586          10.250
        11.750
  11937021.873 6   9301576.108 6  22541403.484    22541409.887          13.500
        14.000
  -6872983.095 6  -6255376.165 6  21012818.508    21012823.496          18.500
        21.250
 -14247495.052 7 -11083093.383 6  21282697.727    21282703.121          20.250
        20.250
  -3745668.814 6  -3517459.119 6  21686329.898    21686336.164          18.000
        17.500
  17889556.226 5  13940610.188 5  23236615.781    23236622.898          10.750
        10.750
 99  3  3  1 52  0.0000000  0  6G17G 5G30G 6G10G24
  -6610987.832 5  -5127978.258 5  23287407.891    23287414.691          10.250
        11.750
  11990318.476 6   9343105.940 6  22551545.609    22551551.824          13.500
        13.750
  -6848349.740 6  -6236181.338 6  21017506.109    21017511.059          18.750
        21.250
 -14266562.397 7 -11097951.040 6  21279069.375    21279074.742          20.000
        20.250
  -3713740.205 6  -3492579.683 6  21692405.914    21692411.980          18.000
        17.500
  17932075.614 5  13973742.182 5  23244707.031    23244714.152          10.750
        10.750
 99  3  3  1 52 15.0000000  0  6G17G 5G30G 6G10G24
  -6639232.188 5  -5149986.806 5  23282033.203    23282039.926          10.000
        11.750
  12043680.310 6   9384686.590 6  22561700.070    22561706.117          13.500
        13.500
  -6823588.594 6  -6216886.938 6  21022217.969    21022222.957          18.500
        21.250
 -14285588.210 7 -11112776.336 6  21275448.836    21275454.297          20.000
        20.250
  -3681694.417 6  -3467608.933 6  21698504.039    21698510.086          18.000
        17.500
  17974583.470 5  14006865.196 5  23252796.000    23252803.113          11.000
        10.750
 99  3  3  1 52 30.0000000  0  6G17G 5G30G 6G10G24
  -6667434.162 5  -5171962.318 6  23276666.422    23276673.270          10.250
        12.000
  12097111.068 6   9426320.948 6  22571867.781    22571873.773          14.000
        13.750
  -6798690.472 6  -6197485.798 6  21026955.867    21026960.785          18.750
        21.250
 -14304568.264 7 -11127565.968 6  21271837.008    21271842.379          20.000
        20.250
  -3649527.154 6  -3442543.523 6  21704625.180    21704631.379          18.000
        17.500
  18017082.648 5  14039981.428 5  23260883.320    23260890.383          10.750
        10.750
 99  3  3  1 52 45.0000000  0  6G17G 5G30G 6G10G24
  -6695592.833 5  -5193904.107 6  23271307.945    23271314.648          10.000
        12.250
  12150610.942 6   9468009.156 6  22582048.477    22582054.328          14.000
        13.750
  -6773652.161 6  -6177975.427 6  21031720.555    21031725.492          18.750
        21.500
 -14323499.965 7 -11142317.929 6  21268234.344    21268239.789          20.000
        20.250
  -3617241.054 6  -3417385.528 6  21710768.992    21710775.176          18.000
        17.500
  18059576.735 5  14073093.713 5  23268969.648    23268976.863          11.000
        10.750
 99  3  3  1 53  0.0000000  0  6G17G 5G30G 6G10G24
  -6723711.977 5  -5215815.083 6  23265956.938    23265963.996           9.750
        12.000
  12204170.945 6   9509744.226 6  22592240.688    22592246.668          13.750
        14.000
  -6748477.414 6  -6158358.737 6  21036511.211    21036516.043          18.750
        21.500
 -14342386.266 7 -11157034.512 6  21264640.336    21264645.715          20.000
        20.250
  -3584837.686 6  -3392136.139 6  21716935.102    21716941.332          18.000
        17.500
  18102063.722 5  14106200.470 5  23277054.594    23277061.945          10.750
        10.750
 99  3  3  1 53 15.0000000  0  6G17G 5G30G 6G10G24
  -6751791.430 5  -5237695.128 6  23260613.648    23260620.578          10.000
        12.250
  12257785.157 6   9551521.531 6  22602442.969    22602449.113          13.500
        14.000
  -6723167.030 6  -6138636.357 6  21041327.680    21041332.559          18.750
        21.500
 -14361229.928 7 -11171717.870 6  21261054.563    21261059.992          20.000
        20.250
  -3552320.217 6  -3366797.848 6  21723122.906    21723129.113          18.000
        17.250
  18144542.409 5  14139300.745 5  23285138.078    23285145.332          10.750
        10.750
 99  3  3  1 53 30.0000000  0  6G17G 5G30G 6G10G24
  -6779823.353 5  -5259538.141 6  23255279.281    23255286.383           9.750
        12.250
  12311457.193 6   9593343.897 6  22612656.391    22612662.699          13.500
        14.250
  -6697710.927 6  -6118800.440 6  21046171.797    21046176.660          19.000
        21.500
 -14380023.023 7 -11186361.824 6  21257478.477    21257483.863          20.000
        20.250
  -3519682.661 6  -3341365.984 6  21729333.805    21729339.891          18.000
        17.250
  18187020.949 5  14172400.904 5  23293221.336    23293228.566          10.750
        10.750
 99  3  3  1 53 45.0000000  0  6G17G 5G30G 6G10G24
  -6807810.316 5  -5281346.124 6  23249953.406    23249960.430           9.750
        12.250
  12365182.124 6   9635207.475 6  22622880.047    22622886.039          13.500
        14.000
  -6672108.268 6  -6098850.307 6  21051043.797    21051048.730          19.000
        21.750
 -14398769.717 7 -11200969.623 6  21253910.977    21253916.414          20.000
        20.250
  -3486927.759 6  -3315842.676 6  21735566.750    21735572.926          17.750
        17.250
  18229497.854 5  14205499.801 5  23301304.688    23301311.754          10.750
        10.750
 99  3  3  1 54  0.0000000  0  6G17G 5G30G 6G10G24
  -6835753.822 5  -5303120.236 6  23244636.133    23244643.117          10.000
        12.500
  12418954.705 6   9677108.189 6  22633112.641    22633118.590          13.750
        14.000
  -6646362.460 6  -6078788.637 6  21055943.023    21055948.047          18.750
        21.750
 -14417473.292 7 -11215543.824 6  21250351.742    21250357.215          20.000
        20.250
  -3454057.088 6  -3290229.164 6  21741821.906    21741827.934          18.000
        17.250
  18271971.715 5  14238596.327 5  23309387.109    23309394.148          10.750
        10.500
 99  3  3  1 54 15.0000000  0  6G17G 5G30G 6G10G24
  -6863652.130 5  -5324859.136 6  23239327.109    23239334.000          10.000
        12.250
  12472772.865 6   9719044.422 6  22643353.859    22643359.832          13.750
        13.750
  -6620471.162 6  -6058613.600 6  21060869.969    21060874.918          18.750
        22.000
 -14436132.181 7 -11230083.202 6  21246801.078    21246806.496          20.000
        20.250
  -3421070.529 6  -3264525.345 6  21748099.070    21748105.129          18.000
        17.250
  18314445.711 5  14271692.943 5  23317469.719    23317476.750          11.000
        10.500
 99  3  3  1 54 30.0000000  0  6G17G 5G30G 6G10G24
  -6891500.430 5  -5346559.061 6  23234027.680    23234034.742          10.000
        12.250
  12526639.834 6   9761018.686 6  22653604.367    22653610.297          13.500
        13.500
  -6594431.207 6  -6038322.727 6  21065825.227    21065830.219          18.750
        21.750
 -14454741.128 7 -11244583.656 6  21243260.047    21243265.273          20.000
        20.250
  -3387966.544 6  -3238730.027 6  21754398.430    21754404.625          17.750
        17.000
  18356925.208 5  14304793.859 5  23325553.414    23325560.414          10.750
        10.500
 99  3  3  1 54 45.0000000  0  6G17G 5G30G 6G10G24
  -6919295.787 5  -5368217.743 6  23228738.492    23228745.148          10.250
        12.000
  12580558.493 6   9803033.230 6  22663864.766    22663870.820          13.500
        13.750
  -6568242.993 6  -6017916.326 6  21070808.766    21070813.820          18.750
        22.000
 -14473295.903 6 -11259041.909 6  21239728.961    21239734.398          19.750
        20.250
  -3354743.248 6  -3212841.737 6  21760720.656    21760726.754          18.000
        17.250
  18399414.041 5  14337902.042 5  23333638.586    23333645.648          10.750
        10.500
 99  3  3  1 55  0.0000000  0  6G17G 5G30G 6G10G24
  -6947043.584 5  -5389839.364 6  23223458.039    23223464.945          10.000
        12.250
  12634521.953 6   9845082.676 6  22674133.750    22674139.863          13.500
        13.750
  -6541916.471 6  -5997402.152 6  21075818.461    21075823.438          18.750
        22.000
 -14491800.356 6 -11273460.944 6  21236207.695    21236213.023          19.750
        20.000
  -3321404.060 6  -3186863.139 6  21767064.930    21767070.879          18.000
        17.000
  18441905.961 5  14371012.638 5  23341724.492    23341731.586          10.750
        10.250
 99  3  3  1 55 15.0000000  0  6G17G 5G30G 6G10G24
  -6974740.975 5  -5411421.718 6  23218187.391    23218194.230           9.750
        12.000
  12688537.374 6   9887172.614 6  22684412.555    22684418.750          13.250
        13.750
  -6515449.333 6  -5976778.399 6  21080854.859    21080859.980          18.750
        22.000
 -14510251.588 6 -11287838.511 6  21232696.469    21232701.883          19.750
        20.250
  -3287945.962 6  -3160791.891 6  21773431.750    21773437.785          18.000
        17.000
  18484402.531 5  14404126.844 5  23349811.234    23349818.430          10.500
        10.250
 99  3  3  1 55 30.0000000  0  6G17G 5G30G 6G10G24
  -7002391.233 5  -5432967.322 6  23212925.820    23212932.664          10.000
        12.000
  12742605.754 6   9929303.817 6  22694701.383    22694707.469          13.500
        13.750
  -6488842.693 6  -5956045.962 6  21085917.953    21085923.086          18.750
        21.750
 -14528648.810 6 -11302173.993 6  21229195.594    21229201.156          19.750
        20.250
  -3254369.587 6  -3134628.474 6  21779821.125    21779827.188          17.750
        17.000
  18526900.510 5  14437242.173 5  23357898.594    23357905.410          10.500
        10.250
 99  3  3  1 55 45.0000000  0  6G17G 5G30G 6G10G24
  -7029992.368 5  -5454474.659 6  23207673.406    23207680.254           9.750
        12.250
  12796731.621 6   9971479.816 6  22705001.180    22705007.148          13.500
        13.500
  -6462097.746 6  -5935205.739 6  21091007.367    21091012.434          18.500
        21.500
 -14546990.655 6 -11316466.327 6  21225705.219    21225710.641          19.500
        20.250
  -3220670.574 6  -3108369.502 6  21786233.906    21786240.000          18.000
        17.250
  18569400.481 5  14470359.034 5  23365985.727    23365992.742          10.500
        10.000
 99  3  3  1 56  0.0000000  0  6G17G 5G30G 6G10G24
  -7057544.201 5  -5475943.589 6  23202430.383    23202437.328           9.750
        12.250
  12850916.830 6  10013702.054 6  22715312.391    22715318.316          13.250
        13.250
  -6435217.924 6  -5914260.426 6  21096122.359    21096127.363          19.000
        21.750
 -14565276.972 6 -11330715.393 6  21222225.438    21222230.844          19.500
        20.250
  -3186847.588 6  -3082013.926 6  21792670.070    21792676.203          17.750
        17.000
  18611899.572 5  14503475.216 5  23374073.180    23374080.109          10.500
        10.000
 99  3  3  1 56 15.0000000  0  6G17G 5G30G 6G10G24
  -7085051.061 5  -5497377.465 6  23197195.930    23197202.684          10.000
        12.250
  12905158.373 6  10055968.184 6  22725634.102    22725640.156          13.000
        13.250
  -6408209.885 6  -5893215.202 6  21101262.016    21101266.945          18.750
        22.000
 -14583511.827 6 -11344924.356 6  21218755.453    21218760.898          19.750
        20.000
  -3152902.339 6  -3055563.074 6  21799129.766    21799135.723          18.000
        17.000
  18654395.574 5  14536588.979 5  23382160.016    23382166.879          10.500
        10.000
 99  3  3  1 56 30.0000000  0  6G17G 5G30G 6G10G24
  -7112511.018 5  -5518774.803 6  23191970.492    23191977.285          10.250
        12.250
  12959460.308 6  10098281.373 6  22735967.430    22735973.500          13.000
        13.500
  -6381070.872 6  -5872067.916 6  21106426.273    21106431.230          19.000
        21.750
 -14601690.354 6 -11359089.422 6  21215296.133    21215301.559          19.500
        20.000
  -3118828.624 6  -3029012.119 6  21805613.781    21805619.879          17.750
        17.000
  18696890.963 5  14569702.266 5  23390246.492    23390253.477          10.500
        10.000
 99  3  3  1 56 45.0000000  0  6G17G 5G30G 6G10G24
  -7139927.065 5  -5540137.920 6  23186753.484    23186760.094          10.500
        12.250
  13013820.016 6  10140639.590 6  22746311.773    22746317.820          13.000
        13.500
  -6353805.858 6  -5850822.452 6  21111614.703    21111619.637          19.250
        21.500
 -14619816.876 6 -11373213.968 6  21211846.836    21211852.117          19.500
        19.750
  -3084625.326 6  -3002360.187 6  21812122.445    21812128.496          17.750
        17.000
  18739380.935 5  14602811.346 5  23398331.797    23398338.965          10.250
         9.750
 99  3  3  1 57  0.0000000  0  6G17G 5G30G 6G10G24
  -7167295.394 5  -5561463.852 6  23181545.406    23181552.160          10.500
        12.250
  13068242.254 6  10183046.521 6  22756668.117    22756674.063          13.000
        13.500
  -6326409.657 6  -5829474.758 6  21116828.039    21116833.004          19.250
        21.500
 -14637885.585 6 -11387293.464 6  21208408.484    21208413.938          19.500
        20.000
  -3050285.782 6  -2975602.093 6  21818656.984    21818663.121          17.750
        17.000
  18781870.626 5  14635920.204 5  23406417.563    23406424.598          10.500
         9.750
 99  3  3  1 57 15.0000000  0  6G17G 5G30G 6G10G24
  -7194620.655 5  -5582756.230 6  23176345.391    23176352.172          10.250
        12.250
  13122723.054 6  10225499.094 6  22767035.391    22767041.398          13.000
        13.500
  -6298884.724 6  -5808026.764 6  21122065.891    21122070.879          19.000
        21.500
 -14655901.515 6 -11401331.837 6  21204980.195    21204985.539          19.750
        20.000
  -3015816.500 6  -2948742.901 6  21825216.281    21825222.309          17.500
        17.000
  18824356.953 5  14669026.436 5  23414502.344    23414509.590          10.250
         9.750
 99  3  3  1 57 30.0000000  0  6G17G 5G30G 6G10G24
  -7221900.949 5  -5604013.561 6  23171154.094    23171160.887          10.250
        12.000
  13177262.306 6  10267997.204 6  22777413.781    22777419.906          12.750
        13.500
  -6271229.554 6  -5786477.281 6  21127328.391    21127333.266          18.750
        21.250
 -14673865.118 6 -11415329.435 6  21201561.781    21201567.172          19.500
        20.000
  -2981218.540 6  -2921783.446 6  21831800.133    21831806.152          17.500
        17.000
  18866839.606 5  14702129.806 5  23422586.594    23422593.617          10.250
        10.000
 99  3  3  1 57 45.0000000  0  6G17G 5G30G 6G10G24
  -7249134.723 5  -5625234.654 5  23165971.664    23165978.262          10.250
        11.750
  13231854.996 6  10310536.957 6  22787802.313    22787808.480          12.500
        13.500
  -6243447.991 6  -5764829.311 6  21132615.141    21132619.852          19.000
        21.000
 -14691779.156 6 -11429288.406 6  21198152.672    21198158.047          19.500
        20.000
  -2946494.203 6  -2894725.516 6  21838407.820    21838413.809          17.500
        16.500
  18909317.638 5  14735229.581 5  23430669.828    23430676.930          10.500
         9.750
 99  3  3  1 58  0.0000000  0  6G17G 5G30G 6G10G24
  -7276320.957 5  -5646418.699 6  23160798.305    23160804.789          10.500
        12.000
  13286498.628 6  10353116.413 6  22798200.664    22798206.801          12.250
        13.250
  -6215542.613 6  -5743084.860 6  21137925.281    21137930.121          19.000
        21.000
 -14709646.354 6 -11443210.884 6  21194752.695    21194758.117          19.500
        20.000
  -2911648.331 6  -2867572.876 6  21845038.766    21845044.703          17.750
        16.750
  18951789.881 5  14768324.842 5  23438752.133    23438758.984          10.250
         9.750
 99  3  3  1 58 15.0000000  0  6G17G 5G30G 6G10G24
  -7303459.381 5  -5667565.486 6  23155633.922    23155640.566          10.000
        12.000
  13341192.563 6  10395735.078 6  22808608.617    22808614.777          12.250
        13.250
  -6187511.385 6  -5721242.339 6  21143259.477    21143264.289          19.250
        21.000
 -14727462.133 6 -11457093.290 6  21191362.539    21191367.898          19.500
        20.000
  -2876680.245 6  -2840325.016 6  21851692.898    21851699.031          17.500
        17.000
  18994258.191 5  14801417.030 5  23446833.578    23446840.699          10.500
        10.000
 99  3  3  1 58 30.0000000  0  6G17G 5G30G 6G10G24
  -7330551.998 5  -5688676.580 6  23150478.359    23150485.094          10.250
        12.500
  13395932.184 6  10438389.311 6  22819025.258    22819031.445          12.750
        13.250
  -6159358.523 6  -5699305.049 6  21148616.813    21148621.598          19.250
        21.000
 -14745229.342 6 -11470937.857 6  21187981.531    21187986.887          19.500
        20.000
  -2841594.577 6  -2812985.523 6  21858369.563    21858375.738          17.500
        17.000
  19036718.702 5  14834503.149 5  23454913.594    23454920.824          10.250
        10.000
 99  3  3  1 58 45.0000000  0  6G17G 5G30G 6G10G24
  -7357594.823 5  -5709748.884 6  23145332.250    23145339.086          10.250
        12.500
  13450719.265 6  10481080.545 6  22829450.969    22829457.109          12.750
        13.000
  -6131081.291 6  -5677270.839 6  21153997.805    21154002.547          18.750
        21.000
 -14762944.235 6 -11484741.653 6  21184610.391    21184615.699          19.750
        20.000
  -2806393.758 6  -2785556.307 6  21865067.945    21865074.035          17.500
        16.750
  19079170.704 5  14867582.631 5  23462992.102    23462998.910          10.500
        10.000
 99  3  3  1 59  0.0000000  0  6G17G 5G30G 6G10G24
  -7384588.577 5  -5730782.938 6  23140195.758    23140202.523          10.500
        12.250
  13505555.256 6  10523809.880 6  22839885.914    22839892.070          12.750
        13.000
  -6102677.060 6  -5655137.673 6  21159403.000    21159407.672          19.000
        20.750
 -14780607.894 6 -11498505.519 6  21181249.359    21181254.547          19.750
        19.750
  -2771079.512 6  -2758038.707 6  21871788.063    21871794.137          17.500
        16.750
  19121614.421 5  14900655.663 5  23471068.852    23471075.605          10.500
         9.750
 99  3  3  1 59 15.0000000  0  6G17G 5G30G 6G10G24
  -7411536.647 5  -5751781.409 6  23135067.633    23135074.277          10.500
        12.500
  13560438.193 6  10566575.812 6  22850329.664    22850335.883          12.500
        13.000
  -6074148.277 6  -5632907.455 6  21164831.680    21164836.609          18.750
        21.000
 -14798222.608 6 -11512231.267 6  21177897.297    21177902.547          19.750
        20.000
  -2735658.629 6  -2730438.011 6  21878528.414    21878534.379          17.000
        16.500
  19164046.187 5  14933719.378 5  23479143.328    23479149.953          10.500
         9.750
 99  3  3  1 59 30.0000000  0  6G17G 5G30G 6G10G24
  -7438433.184 5  -5772739.708 6  23129949.352    23129956.109          10.750
        12.750
  13615370.793 6  10609380.429 6  22860783.047    22860789.184          12.250
        12.750
  -6045491.959 6  -5610577.853 6  21170284.984    21170289.770          18.750
        20.750
 -14815787.115 6 -11525917.875 6  21174554.820    21174560.188          19.750
        19.750
  -2700127.708 6  -2702751.573 6  21885289.766    21885295.664          17.000
        16.500
  19206469.365 5  14966776.410 5  23487216.195    23487223.156          10.250
         9.750
 99  3  3  1 59 45.0000000  0  6G17G 5G30G 6G10G24
  -7465280.143 5  -5793659.386 6  23124840.641    23124847.313          10.750
        12.750
  13670351.590 6  10652222.611 6  22871245.414    22871251.531          12.250
        12.500
  -6016708.889 6  -5588149.492 6  21175762.055    21175766.996          18.750
        21.000
 -14833304.022 6 -11539567.393 6  21171221.500    21171226.828          19.750
        20.000
  -2664485.927 6  -2674978.751 6  21892072.117    21892078.230          17.250
        16.750
  19248882.304 5  14999825.457 5  23495287.188    23495294.152          10.000
         9.750
 99  3  3  2  0  0.0000000  0  6G17G 5G30G 6G10G24
  -7492076.548 5  -5814539.669 6  23119741.586    23119748.141          11.000
        13.000
  13725387.279 6  10695107.556 6  22881718.516    22881724.648          12.250
        12.500
  -5987793.461 6  -5565617.983 6  21181264.570    21181269.555          18.750
        21.000
 -14850765.784 6 -11553173.951 6  21167898.648    21167903.961          19.750
        20.000
  -2628729.286 6  -2647116.428 6  21898876.336    21898882.383          17.000
        16.500
  19291291.973 5  15032871.967 5  23503357.391    23503364.406          10.000
         9.750
 99  3  3  2  0 15.0000000  0  6G17G 5G30G 6G10G24
  -7518824.342 5  -5835382.074 6  23114651.367    23114657.969          10.750
        12.750
  13780478.506 6  10738035.791 6  22892201.930    22892207.867          12.500
        12.500
  -5958744.591 6  -5542982.499 6  21186792.438    21186797.270          19.000
        21.250
 -14868171.568 6 -11566736.879 6  21164586.305    21164591.664          19.750
        20.000
  -2592854.286 6  -2619161.881 6  21905703.117    21905709.176          17.000
        16.250
  19333698.702 5  15065916.166 5  23511426.969    23511433.957          10.000
         9.750
 99  3  3  2  0 30.0000000  0  6G17G 5G30G 6G10G24
  -7545533.180 5  -5856194.132 6  23109568.781    23109575.406          11.000
        13.000
  13835619.188 6  10781002.551 6  22902694.953    22902701.008          12.500
        12.500
  -5929569.469 6  -5520248.639 6  21192344.219    21192349.012          19.250
        21.000
 -14885532.153 6 -11580264.598 6  21161282.820    21161288.082          19.750
        20.000
  -2556867.831 6  -2591120.482 6  21912551.195    21912557.371          16.750
        16.500
  19376096.224 5  15098953.197 5  23519495.078    23519502.254          10.000
        10.000
 99  3  3  2  0 45.0000000  0  6G17G 5G30G 6G10G24
  -7572204.637 5  -5876977.048 6  23104493.258    23104500.086          10.750
        13.000
  13890809.451 6  10824007.949 6  22913197.234    22913203.531          12.250
        12.250
  -5900265.709 6  -5497414.541 6  21197920.664    21197925.379          19.000
        21.000
 -14902848.841 6 -11593758.107 6  21157987.422    21157992.785          19.750
        19.750
  -2520771.523 6  -2562993.483 6  21919420.055    21919426.113          16.750
        16.500
  19418486.026 5  15131984.221 5  23527561.320    23527568.188           9.750
         9.750
 99  3  3  2  1  0.0000000  0  6G17G 5G30G 6G10G24
  -7598836.529 5  -5897729.144 6  23099425.563    23099432.066          11.000
        13.000
  13946053.924 6  10867055.588 6  22923709.867    22923716.000          12.000
        12.250
  -5870827.507 6  -5474475.686 6  21203522.484    21203527.355          18.750
        21.000
 -14920118.614 6 -11607215.065 6  21154701.133    21154706.352          19.750
        19.750
  -2484559.575 6  -2534776.376 6  21926311.055    21926317.113          17.000
        16.500
  19460874.344 5  15165014.084 5  23535627.711    23535634.766          10.000
         9.500
 99  3  3  2  1 15.0000000  0  6G17G 5G30G 6G10G24
  -7625427.652 5  -5918449.470 6  23094365.445    23094372.086          11.000
        13.000
  14001350.048 6  10910143.472 6  22934232.234    22934238.418          12.000
        12.250
  -5841258.047 6  -5451434.548 6  21209149.375    21209154.242          18.750
        21.000
 -14937341.591 6 -11620635.550 6  21151423.820    21151428.980          19.750
        19.750
  -2448232.023 6  -2506469.188 6  21933223.820    21933229.973          16.750
        16.250
  19503261.501 5  15198043.040 5  23543693.609    23543700.813          10.000
        10.000
 99  3  3  2  1 30.0000000  0  6G17G 5G30G 6G10G24
  -7651977.724 5  -5939137.805 6  23089313.047    23089319.656          11.500
        13.000
  14056691.633 6  10953266.788 6  22944763.352    22944769.504          12.000
        12.000
  -5811563.373 6  -5428295.837 6  21214800.133    21214804.996          19.250
        21.250
 -14954517.789 6 -11634019.587 6  21148155.305    21148160.328          19.750
        19.750
  -2411792.412 6  -2478074.685 6  21940158.055    21940164.043          16.500
        16.250
  19545646.316 5  15231070.166 5  23551759.203    23551766.191           9.750
         9.500
 99  3  3  2  1 45.0000000  0  6G17G 5G30G 6G10G24
  -7678485.505 5  -5959793.188 6  23084268.625    23084275.422          11.250
        13.000
  14112080.554 5  10996426.982 6  22955303.727    22955309.742          11.750
        12.250
  -5781739.414 6  -5405056.391 6  21220475.461    21220480.234          19.250
        21.250
 -14971642.420 6 -11647363.441 6  21144896.375    21144901.605          19.750
        19.750
  -2375236.691 6  -2449589.704 6  21947114.234    21947120.332          16.500
        16.250
  19588030.626 5  15264096.920 5  23559824.820    23559831.855          10.000
         9.750
 99  3  3  2  2  0.0000000  0  6G17G 5G30G 6G10G24
  -7704947.561 5  -5980412.942 6  23079233.141    23079239.672          11.500
        13.000
  14167519.413 6  11039626.095 5  22965853.563    22965859.547          12.000
        11.750
  -5751781.535 6  -5381712.592 6  21226176.219    21226181.199          18.750
        21.250
 -14988707.326 7 -11660660.761 6  21141649.156    21141654.219          20.000
        19.750
  -2338561.049 6  -2421011.278 6  21954093.508    21954099.508          16.750
        16.500
  19630418.151 5  15297126.147 5  23567890.898    23567897.734          10.000
         9.250
 99  3  3  2  2 15.0000000  0  6G17G 5G30G 6G10G24
  -7731363.566 5  -6000996.811 6  23074206.258    23074212.949          11.250
        13.250
  14223003.722 6  11082860.624 5  22976411.844    22976417.844          12.000
        11.750
  -5721694.508 6  -5358268.154 6  21231901.492    21231906.410          18.750
        21.250
 -15005713.206 7 -11673912.081 6  21138413.164    21138418.188          20.250
        19.750
  -2301768.655 6  -2392341.880 6  21961094.977    21961100.926          16.750
        16.250
  19672805.091 5  15330154.935 5  23575956.898    23575963.699          10.000
         9.500
 99  3  3  2  2 30.0010000  0  6G17G 5G30G 6G10G24
  -7757733.210 5  -6021544.556 6  23069188.364    23069195.083          11.250
        13.000
  14278537.854 5  11126133.975 6  22986979.403    22986985.685          11.750
        12.250
  -5691475.634 6  -5334720.986 6  21237651.880    21237656.806          18.500
        21.250
 -15022662.044 7 -11687118.956 6  21135187.817    21135192.864          20.000
        19.750
  -2264859.513 6  -2363581.507 6  21968118.450    21968124.360          16.500
        16.250
  19715194.237 5  15363185.439 5  23584023.403    23584029.942          10.000
         9.250
 99  3  3  2  2 45.0010000  0  6G17G 5G30G 6G10G24
  -7784057.740 5  -6042057.158 6  23064178.872    23064185.595          11.250
        13.500
  14334108.588 5  11169435.822 6  22997554.146    22997560.528          11.500
        12.250
  -5661132.706 6  -5311077.144 6  21243425.966    21243430.888          18.500
        20.750
 -15039553.543 7 -11700281.149 6  21131973.427    21131978.579          20.000
        20.000
  -2227848.068 6  -2334741.406 6  21975161.466    21975167.454          16.500
        16.250
  19757573.981 5  15396208.638 5  23592087.731    23592094.446          10.000
         9.250
 99  3  3  2  3  0.0010000  0  6G17G 5G30G 6G10G24
  -7810330.393 5  -6062529.322 6  23059179.364    23059185.946          11.000
        13.500
  14389722.389 5  11212771.258 6  23008137.130    23008143.517          11.250
        12.500
  -5630657.684 6  -5287330.375 6  21249225.192    21249230.146          18.500
        21.250
 -15056380.443 7 -11713393.012 6  21128771.380    21128776.497          20.000
        20.000
  -2190727.017 6  -2305815.906 6  21982225.216    21982231.438          16.000
        16.500
  19799951.393 5  15429229.994 5  23600151.802    23600158.743           9.500
         9.500
 99  3  3  2  3 15.0010000  0  6G17G 5G30G 6G10G24
  -7836549.133 5  -6082959.472 6  23054190.106    23054196.728          11.250
        13.500
  14445378.752 5  11256139.852 6  23018728.224    23018734.567          11.750
        12.250
  -5600052.924 6  -5263482.509 6  21255049.122    21255054.040          18.500
        21.250
 -15073143.730 7 -11726455.300 6  21125581.411    21125586.450          20.250
        19.750
  -2153498.823 6  -2276806.927 6  21989309.458    21989315.735          16.250
        16.000
  19842323.613 5  15462247.313 5  23608215.185    23608221.860          10.000
         9.250
 99  3  3  2  3 30.0010000  0  6G17G 5G30G 6G10G24
  -7862713.069 5  -6103346.936 6  23049211.200    23049217.829          11.250
        13.250
  14501077.704 5  11299541.631 6  23029327.560    23029333.579          11.000
        12.000
  -5569317.463 6  -5239532.808 6  21260897.864    21260902.817          18.500
        21.000
 -15089840.586 7 -11739465.825 6  21122404.028    21122409.216          20.000
        20.000
  -2116162.679 6  -2247713.827 6  21996414.364    21996420.524          16.500
        16.250
  19884692.537 5  15495262.076 5  23616277.685    23616284.321          10.000
         9.000
 99  3  3  2  3 45.0010000  0  6G17G 5G30G 6G10G24
  -7888831.136 5  -6123698.650 6  23044240.981    23044247.677          11.250
        13.250
  14556815.434 5  11342973.637 5  23039934.130    23039940.021          11.500
        11.250
  -5538453.227 6  -5215482.757 6  21266771.106    21266776.134          18.500
        21.250
 -15106477.462 7 -11752429.611 6  21119238.208    21119243.396          20.000
        20.000
  -2078723.111 6  -2218540.133 6  22003538.802    22003545.083          16.250
        16.250
  19927052.812 5  15528270.084 5  23624338.599    23624345.255          10.000
         9.250
 99  3  3  2  4  0.0010000  0  6G17G 5G30G 6G10G24
  -7914904.237 5  -6144015.335 6  23039279.724    23039286.142          11.500
        13.500
  14612594.530 5  11386437.857 5  23050548.458    23050554.235          11.500
        11.000
  -5507461.124 6  -5191333.068 6  21272668.755    21272673.677          18.750
        21.250
 -15123054.481 7 -11765346.750 6  21116083.708    21116088.767          20.000
        20.000
  -2041181.917 6  -2189287.251 6  22010682.599    22010688.755          16.000
        16.000
  19969406.683 5  15561273.105 5  23632398.419    23632404.927          10.000
         9.250
 99  3  3  2  4 15.0010000  0  6G17G 5G30G 6G10G24
  -7940929.700 5  -6164294.873 6  23034326.966    23034333.501          11.250
        13.500
  14668416.055 5  11429935.151 5  23061170.942    23061176.739          11.250
        10.750
  -5476344.285 6  -5167086.175 6  21278590.067    21278595.040          18.750
        21.500
 -15139572.583 7 -11778217.991 6  21112940.333    21112945.485          20.250
        20.000
  -2003538.674 6  -2159954.847 6  22017845.888    22017852.044          16.000
        15.750
  20011757.696 5  15594273.908 5  23640457.411    23640463.896          10.000
         9.250
 99  3  3  2  4 30.0010000  0  6G17G 5G30G 6G10G24
  -7966908.890 5  -6184538.384 6  23029383.302    23029389.837          11.500
        13.250
  14724281.841 5  11473466.933 5  23071801.778    23071807.681          11.250
        11.000
  -5445101.409 6  -5142741.090 6  21284535.263    21284540.298          18.500
        21.250
 -15156033.449 7 -11791044.635 6  21109808.067    21109813.204          20.250
        20.000
  -1965792.897 6  -2130542.551 6  22025028.724    22025034.978          16.250
        16.000
  20054107.218 5  15627273.538 5  23648516.052    23648522.782           9.750
         9.000
 99  3  3  2  4 45.0010000  0  6G17G 5G30G 6G10G24
  -7992841.532 5  -6204745.607 6  23024448.325    23024455.032          11.500
        13.500
  14780192.965 5  11517034.046 5  23082441.497    23082447.341          11.500
        11.500
  -5413729.051 6  -5118295.099 6  21290505.302    21290510.345          18.500
        21.250
 -15172433.214 7 -11803823.654 6  21106687.278    21106692.419          20.000
        20.000
  -1927941.858 6  -2101048.232 6  22032231.575    22032237.677          16.000
        16.000
  20096458.128 5  15660274.258 5  23656575.317    23656581.938           9.750
         9.250
 99  3  3  2  5  0.0010000  0  6G17G 5G30G 6G10G24
  -8018729.117 5  -6224917.725 6  23019522.169    23019528.860          11.250
        13.500
  14836143.460 5  11560631.839 5  23093088.231    23093094.423          11.250
        11.500
  -5382231.187 6  -5093751.308 6  21296499.286    21296504.149          18.750
        21.000
 -15188775.071 7 -11816557.562 6  21103577.450    21103582.579          20.000
        20.000
  -1889984.955 6  -2071471.418 6  22039454.528    22039460.677          16.250
        16.000
  20138807.273 5  15693273.599 5  23664634.028    23664640.735           9.750
         9.250
 99  3  3  2  5 15.0010000  0  6G17G 5G30G 6G10G24
  -8044574.729 5  -6245057.127 6  23014603.997    23014610.458          11.500
        13.500
  14892131.038 5  11604258.511 5  23103742.474    23103748.610          11.250
        11.750
  -5350611.785 6  -5069112.812 6  21302516.310    21302521.149          18.750
        21.000
 -15205062.595 7 -11829249.123 6  21100477.935    21100483.161          20.000
        20.000
  -1851921.655 6  -2041811.701 6  22046697.786    22046703.868          16.250
        16.000
  20181153.554 5  15726270.707 5  23672692.435    23672698.845           9.750
         9.250
 99  3  3  2  5 30.0010000  0  6G17G 5G30G 6G10G24
  -8070382.570 5  -6265167.113 6  23009692.935    23009699.442          11.500
        13.500
  14948153.450 5  11647912.341 5  23114402.927    23114409.181          11.000
        11.500
  -5318873.434 6  -5044381.631 6  21308555.841    21308560.688          18.750
        20.750
 -15221296.504 7 -11841898.906 6  21097388.661    21097393.923          20.000
        20.250
  -1813752.127 6  -2012069.203 6  22053961.286    22053967.349          16.250
        16.000
  20223496.172 5  15759264.968 5  23680749.974    23680756.528           9.750
         9.000
 99  3  3  2  5 45.0010000  0  6G17G 5G30G 6G10G24
  -8096153.300 5  -6285248.173 6  23004788.942    23004795.349          11.750
        13.500
  15004213.038 5  11691595.132 5  23125070.825    23125077.052          11.000
        11.250
  -5287014.079 6  -5019556.163 6  21314618.521    21314623.380          18.750
        21.000
 -15237475.334 7 -11854505.780 6  21094310.122    21094315.313          20.000
        20.000
  -1775474.124 6  -1982242.185 6  22061245.177    22061251.368          16.250
        15.750
  20265835.742 5  15792256.845 5  23688806.981    23688813.435           9.750
         9.250
 99  3  3  2  6  0.0010000  0  6G17G 5G30G 6G10G24
  -8121883.452 5  -6305297.616 6  22999892.567    22999898.981          11.500
        13.500
  15060314.966 5  11735310.917 5  23135746.825    23135752.771          10.750
        11.000
  -5255031.228 6  -4994634.462 6  21320704.677    21320709.595          18.750
        21.000
 -15253595.601 7 -11867067.009 6  21091242.458    21091247.677          20.000
        20.250
  -1737086.674 6  -1952329.879 6  22068550.231    22068556.321          16.250
        15.750
  20308173.829 5  15825247.563 5  23696863.474    23696870.196           9.750
         9.250
 99  3  3  2  6 15.0010000  0  6G17G 5G30G 6G10G24
  -8147575.163 5  -6325317.103 6  22995003.661    22995010.032          11.750
        13.250
  15116454.008 5  11779055.621 5  23146429.599    23146435.505          10.750
        10.500
  -5222929.701 6  -4969620.280 6  21326813.403    21326818.294          19.000
        21.000
 -15269660.509 7 -11879585.115 6  21088185.325    21088190.618          20.000
        20.250
  -1698590.707 6  -1922333.013 6  22075875.817    22075881.782          16.250
        15.750
  20350507.103 5  15858234.534 5  23704919.341    23704925.903           9.750
         9.250
 99  3  3  2  6 30.0010000  0  6G17G 5G30G 6G10G24
  -8173230.442 5  -6345308.206 6  22990121.622    22990127.974          11.750
        13.500
  15172625.176 5  11822825.356 5  23157118.841    23157124.384          11.000
        10.500
  -5190707.856 6  -4944512.361 6  21332945.091    21332949.864          19.000
        20.750
 -15285670.349 7 -11892060.293 6  21085138.872    21085143.985          20.000
        20.250
  -1659985.828 6  -1892251.284 6  22083222.067    22083228.087          16.500
        15.750
  20392831.134 5  15891214.306 5  23712973.169    23712979.888           9.500
         9.250
 99  3  3  2  6 45.0010000  0  6G17G 5G30G 6G10G24
  -8198845.012 5  -6365267.589 6  22985247.474    22985253.798          11.750
        13.250
  15228832.417 5  11866623.226 5  23167814.731    23167820.427          11.000
        10.750
  -5158361.896 6  -4919307.707 6  21339100.325    21339105.036          18.750
        20.750
 -15301621.985 7 -11904490.128 6  21082103.271    21082108.556          20.000
        20.250
  -1621269.639 6  -1862082.810 6  22090589.497    22090595.384          16.500
        15.750
  20435146.802 5  15924187.562 5  23721025.731    23721032.462           9.500
         9.250
 99  3  3  2  7  0.0010000  0  6G17G 5G30G 6G10G24
  -8224416.616 5  -6385193.491 6  22980381.200    22980387.606          11.750
        13.500
  15285074.791 5  11910448.453 5  23178517.185    23178522.974          11.000
        11.000
  -5125894.581 6  -4894008.501 6  21345278.536    21345283.298          19.000
        20.500
 -15317517.773 7 -11916876.433 6  21079078.356    21079083.724          20.000
        20.250
  -1582444.031 6  -1831829.091 6  22097977.825    22097983.634          16.500
        15.500
  20477452.320 5  15957152.912 5  23729076.231    23729082.946           9.500
         9.500
 99  3  3  2  7 15.0010000  0  6G17G 5G30G 6G10G24
  -8249943.505 5  -6405084.544 6  22975523.419    22975530.013          11.750
        13.500
  15341355.334 5  11954303.417 5  23189226.958    23189232.981          10.500
        11.250
  -5093305.938 6  -4868614.762 6  21351480.075    21351484.821          18.750
        20.500
 -15333356.672 7 -11929218.422 6  21076064.396    21076069.673          20.000
        20.500
  -1543509.689 6  -1801490.637 6  22105386.755    22105392.649          16.500
        15.500
  20519748.849 5  15990111.249 5  23737124.763    23737131.681           9.250
         9.250
 99  3  3  2  7 30.0010000  0  6G17G 5G30G 6G10G24
  -8275426.614 6  -6424941.484 6  22970674.263    22970680.548          12.000
        13.750
  15397676.085 5  11998189.710 5  23199944.349    23199950.794          10.000
        11.750
  -5060596.115 6  -4843126.587 6  21357704.349    21357709.083          18.750
        20.500
 -15349136.383 7 -11941514.287 6  21073061.614    21073066.798          20.000
        20.500
  -1504467.948 6  -1771068.496 6  22112816.263    22112822.095          16.750
        15.500
  20562035.782 5  16023062.118 5  23745171.599    23745178.642           9.250
         9.250
 99  3  3  2  7 45.0010000  0  6G17G 5G30G 6G10G24
  -8300862.527 6  -6444761.645 6  22965833.911    22965840.290          12.000
        13.750
  15454041.215 5  12042110.578 5  23210670.153    23210676.790           9.750
        11.750
  -5027763.927 6  -4817543.058 6  21363952.255    21363956.962          18.750
        20.500
 -15364856.717 7 -11953763.879 6  21070070.075    21070075.372          20.000
        20.500
  -1465318.459 6  -1740562.392 6  22120266.091    22120271.935          16.750
        15.250
  20604313.718 5  16056005.966 5  23753216.763    23753223.790           9.000
         9.250
 99  3  3  2  8  0.0010000  0  6G17G 5G30G 6G10G24
  -8326249.582 6  -6464543.739 6  22961002.856    22961009.310          12.000
        13.750
  15510451.812 5  12086066.866 5  23221404.849    23221411.341          10.000
        11.500
  -4994809.063 6  -4791863.949 6  21370223.239    21370227.962          18.750
        20.500
 -15380516.612 7 -11965966.379 6  21067089.974    21067095.388          20.000
        20.750
  -1426061.422 6  -1709972.488 6  22127736.325    22127742.267          16.750
        15.000
  20646585.122 5  16088944.729 5  23761260.981    23761267.907           9.000
         9.250
 99  3  3  2  8 15.0010000  0  6G17G 5G30G 6G10G24
  -8351587.181 6  -6484287.302 6  22956181.325    22956187.759          12.250
        14.000
  15566904.394 5  12130055.885 5  23232147.497    23232153.735          10.000
        11.250
  -4961732.507 6  -4766090.016 6  21376517.614    21376522.310          18.750
        20.500
 -15396116.269 7 -11978121.949 6  21064121.489    21064126.856          20.000
        20.750
  -1386696.810 6  -1679298.758 6  22135227.200    22135232.954          16.750
        15.000
  20688851.906 5  16121879.887 5  23769303.872    23769310.806           8.750
         9.250
 99  3  3  2  8 30.0010000  0  6G17G 5G30G 6G10G24
  -8376874.239 6  -6503991.463 6  22951369.263    22951375.720          12.250
        14.000
  15623396.514 5  12174075.723 5  23242897.677    23242903.548          10.500
        10.750
  -4928531.975 6  -4740219.465 6  21382835.380    21382840.161          18.750
        20.500
 -15411655.988 7 -11990230.802 6  21061164.349    21061169.724          20.000
        20.750
  -1347223.863 6  -1648540.614 6  22142738.747    22142744.505          16.750
        15.250
  20731114.937 5  16154812.120 5  23777346.255    23777353.403           8.750
         9.250
 99  3  3  2  8 45.0010000  0  6G17G 5G30G 6G10G24
  -8402109.466 6  -6523655.249 6  22946567.130    22946573.622          12.250
        14.000
  15679931.873 5  12218129.254 5  23253656.052    23253661.771          10.250
        10.500
  -4895206.818 6  -4714251.813 6  21389176.802    21389181.739          18.500
        20.500
 -15427134.092 7 -12002291.644 6  21058219.028    21058224.407          20.000
        20.750
  -1307644.741 6  -1617699.735 6  22150270.466    22150276.071          16.750
        15.000
  20773372.805 5  16187740.329 5  23785387.685    23785394.950           8.750
         9.500
 99  3  3  2  9  0.0010000  0  6G17G 5G30G 6G10G24
  -8427289.959 6  -6543276.382 6  22941775.388    22941781.829          12.250
        14.000
  15736513.708 5  12262218.995 5  23264423.153    23264429.063          10.250
        10.500
  -4861755.803 6  -4688186.093 6  21395542.364    21395547.341          18.500
        20.500
 -15442548.608 6 -12014302.941 6  21055285.685    21055291.091          19.750
        21.000
  -1267956.851 6  -1586774.093 6  22157822.856    22157828.571          16.750
        15.000
  20815629.013 5  16220667.254 5  23793428.981    23793435.853           9.000
         9.000
 99  3  3  2  9 15.0010000  0  6G17G 5G30G 6G10G24
  -8452422.693 6  -6562860.301 6  22936992.856    22936999.138          12.250
        13.750
  15793134.972 5  12306339.458 5  23275197.646    23275203.954           9.750
        10.750
  -4828180.460 6  -4662023.485 6  21401931.583    21401936.446          18.500
        20.500
 -15457901.481 6 -12026266.199 6  21052364.130    21052369.583          19.750
        21.000
  -1228165.960 6  -1555768.204 6  22165394.794    22165400.403          16.750
        14.750
  20857879.377 5  16253589.626 5  23801468.630    23801476.001           8.750
         9.500
 99  3  3  2  9 30.0010000  0  6G17G 5G30G 6G10G24
  -8477508.681 6  -6582407.792 6  22932219.114    22932225.419          12.250
        14.250
  15849793.404 5  12350488.883 5  23285979.364    23285985.813           9.500
        11.000
  -4794478.840 6  -4635762.488 6  21408344.778    21408349.657          18.500
        20.500
 -15473190.508 7 -12038179.708 6  21049454.833    21049460.110          20.000
        20.500
  -1188272.606 6  -1524682.463 6  22172986.341    22172991.981          17.000
        15.000
  20900124.942 5  16286508.248 5  23809507.825    23809515.087           8.750
         9.250
 99  3  3  2  9 45.0010000  0  6G17G 5G30G 6G10G24
  -8502546.777 6  -6601917.974 6  22927454.528    22927460.888          12.250
        14.000
  15906491.000 5  12394668.818 5  23296768.263    23296775.103           9.500
        11.500
  -4760650.636 6  -4609402.852 6  21414782.106    21414787.044          18.500
        20.500
 -15488416.451 6 -12050044.072 6  21046557.192    21046562.735          19.750
        21.000
  -1148274.134 6  -1493514.815 6  22180597.731    22180603.364          16.750
        15.000
  20942366.567 5  16319423.798 5  23817545.935    23817553.255           8.750
         9.500
 99  3  3  2 10  0.0010000  0  6G17G 5G30G 6G10G24
  -8527539.401 5  -6621392.715 6  22922698.552    22922704.825          11.750
        14.000
  15963220.832 5  12438873.866 5  23307564.036    23307570.497          10.000
        11.250
  -4726697.460 6  -4582945.835 6  21421243.122    21421248.063          18.500
        20.250
 -15503582.948 6 -12061862.106 6  21043671.075    21043676.575          19.750
        20.500
  -1108175.659 6  -1462269.245 6  22188228.091    22188233.833          16.750
        15.000
  20984602.778 5  16352335.128 5  23825583.333    23825590.458           8.750
         9.000
 99  3  3  2 10 15.0010000  0  6G17G 5G30G 6G10G24
  -8552489.193 6  -6640834.089 6  22917950.677    22917957.130          12.000
        14.000
  16019980.306 5  12483102.015 5  23318365.161    23318371.442          10.000
        11.750
  -4692619.748 6  -4556391.777 6  21427727.856    21427732.700          18.250
        20.500
 -15518688.529 6 -12073632.673 6  21040796.466    21040802.118          19.750
        21.250
  -1067979.134 6  -1430947.268 6  22195877.380    22195882.989          17.000
        14.750
  21026832.240 5  16385241.203 5  23833619.372    23833626.446           8.750
         9.250
 99  3  3  2 10 30.0010000  0  6G17G 5G30G 6G10G24
  -8577399.834 6  -6660244.940 6  22913210.356    22913216.774          12.000
        14.250
  16076766.436 5  12527350.950 5  23329171.153    23329177.407          10.500
        11.500
  -4658420.888 6  -4529743.316 6  21434235.700    21434240.614          18.250
        20.500
 -15533735.502 6 -12085357.568 6  21037933.177    21037938.649          19.750
        21.250
  -1027689.486 6  -1399552.734 6  22203544.106    22203549.810          16.750
        15.000
  21069048.283 5  16418136.832 5  23841652.935    23841659.892           8.750
         9.250
 99  3  3  2 10 45.0010000  0  6G17G 5G30G 6G10G24
  -8602265.441 6  -6679620.709 6  22908478.583    22908485.024          12.250
        14.250
  16133585.327 5  12571625.412 5  23339983.536    23339989.638          10.250
        11.000
  -4624100.757 6  -4503000.357 6  21440766.685    21440771.685          18.250
        20.250
 -15548719.068 6 -12097033.058 6  21035082.083    21035087.622          19.500
        21.250
   -987303.248 6  -1368082.932 6  22211229.427    22211235.142          16.750
        15.000
  21111253.318 5  16451023.874 5  23849684.302    23849691.349           8.750
         9.250
 99  3  3  2 11  0.0010000  0  6G17G 5G30G 6G10G24
  -8627084.955 6  -6698960.567 6  22903755.622    22903762.126          12.250
        14.250
  16190439.651 5  12615927.475 5  23350802.388    23350808.485           9.750
        10.750
  -4589661.301 6  -4476164.417 6  21447320.474    21447325.321          18.500
        20.500
 -15563637.583 6 -12108657.863 6  21032243.091    21032248.657          19.750
        21.250
   -946816.018 6  -1336534.443 6  22218933.888    22218939.677          16.750
        15.000
  21153450.550 5  16483904.830 5  23857713.981    23857721.403           8.750
         9.250
 99  3  3  2 11 15.0010000  0  6G17G 5G30G 6G10G24
  -8651861.705 6  -6718267.082 6  22899040.786    22899047.196          12.250
        14.250
  16247325.712 5  12660254.265 5  23361627.169    23361633.509           9.250
        10.500
  -4555104.889 6  -4449237.347 6  21453896.278    21453901.157          18.500
        20.500
 -15578495.232 6 -12120235.235 6  21029415.833    21029421.271          19.750
        21.000
   -906231.266 6  -1304909.948 6  22226656.833    22226662.544          16.750
        15.000
  21195639.222 5  16516779.134 5  23865742.364    23865749.228           8.750
         9.000
 99  3  3  2 11 30.0010000  0  6G17G 5G30G 6G10G24
  -8676596.163 6  -6737540.660 6  22894333.849    22894340.091          12.500
        14.500
  16304245.619 5  12704607.443 5  23372458.630    23372464.899           9.250
        10.500
  -4520434.344 6  -4422221.340 6  21460493.778    21460498.513          18.500
        20.250
 -15593291.564 6 -12131764.833 6  21026600.099    21026605.493          19.750
        21.000
   -865548.586 6  -1273209.152 6  22234398.427    22234404.321          16.500
        15.000
  21237820.330 5  16549647.529 5  23873769.146    23873776.333           8.500
         9.250
 99  3  3  2 11 45.0010000  0  6G17G 5G30G 6G10G24
  -8701286.886 6  -6756780.163 6  22889635.310    22889641.548          12.250
        14.500
  16361202.159 5  12748989.162 5  23383297.146    23383303.497           9.250
        10.750
  -4485653.198 6  -4395119.139 6  21467112.435    21467117.255          18.500
        20.500
 -15608026.919 6 -12143246.908 6  21023796.044    21023801.536          19.500
        21.250
   -824765.452 6  -1241430.078 6  22242159.231    22242165.067          16.500
        15.000
  21279993.601 5  16582509.811 5  23881794.411    23881801.505           8.750
         9.000
 99  3  3  2 12  0.0010000  0  6G17G 5G30G 6G10G24
  -8725931.431 6  -6775983.679 6  22884945.638    22884951.892          12.500
        14.250
  16418195.322 5  12793399.408 5  23394142.810    23394149.056           9.500
        11.000
  -4450760.441 6  -4367929.989 6  21473752.302    21473757.095          18.500
        20.250
 -15622699.759 6 -12154680.277 6  21021003.903    21021009.372          19.500
        21.250
   -783880.783 6  -1209571.891 6  22249939.255    22249945.251          16.250
        15.000
  21322158.795 5  16615365.810 5  23889818.372    23889825.212           8.500
         9.000
 99  3  3  2 12 15.0010000  0  6G17G 5G30G 6G10G24
  -8750523.951 6  -6795146.644 6  22880265.700    22880272.110          12.250
        14.250
  16475230.478 5  12837842.388 5  23404996.458    23405002.642          10.000
        11.250
  -4415750.420 6  -4340649.454 6  21480414.481    21480419.337          18.500
        20.250
 -15637302.268 6 -12166058.835 6  21018225.161    21018230.603          19.500
        21.000
   -742887.924 6  -1177629.392 6  22257739.927    22257745.997          16.250
        15.250
  21364320.997 5  16648219.471 5  23897841.271    23897848.169           8.500
         9.000
 99  3  3  2 12 30.0010000  0  6G17G 5G30G 6G10G24
  -8775064.562 6  -6814269.165 6  22875595.747    22875602.118          12.250
        14.750
  16532307.706 5  12882318.141 5  23415858.013    23415864.313          10.250
        11.250
  -4380625.815 6  -4313279.632 6  21487098.442    21487103.290          18.500
        20.250
 -15651835.701 6 -12177383.582 6  21015459.536    21015464.974          19.500
        21.000
   -701786.229 6  -1145602.088 6  22265561.286    22265567.278          16.000
        15.250
  21406478.772 5  16681069.694 5  23905863.583    23905870.528           8.500
         8.750
 99  3  3  2 12 45.0010000  0  6G17G 5G30G 6G10G24
  -8799554.489 6  -6833352.206 6  22870935.528    22870941.747          12.250
        14.250
  16589422.921 5  12926823.501 5  23426726.513    23426732.876          10.000
        11.250
  -4345389.793 6  -4285822.991 6  21493803.692    21493808.524          18.750
        20.250
 -15666304.940 6 -12188658.296 6  21012706.106    21012711.497          19.500
        21.250
   -660576.115 6  -1113490.314 6  22273403.356    22273409.313          16.000
        15.250
  21448631.122 5  16713915.679 5  23913885.067    23913892.021           8.750
         8.750
 99  3  3  2 13  0.0010000  0  6G17G 5G30G 6G10G24
  -8823995.031 6  -6852396.754 6  22866284.466    22866290.907          12.250
        14.500
  16646573.572 5  12971356.467 5  23437601.692    23437608.142           9.500
        11.000
  -4310041.903 6  -4258279.188 6  21500530.075    21500534.974          18.500
        20.250
 -15680710.202 6 -12199883.163 6  21009964.880    21009970.345          19.500
        21.000
   -619257.208 6  -1081293.751 6  22281265.942    22281272.149          16.000
        15.250
  21490777.931 5  16746757.356 5  23921905.177    23921912.083           8.500
         8.500
 99  3  3  2 13 15.0010000  0  6G17G 5G30G 6G10G24
  -8848384.666 6  -6871401.636 6  22861643.310    22861649.728          12.000
        14.500
  16703757.997 5  13015915.756 5  23448483.349    23448489.915           9.000
        10.750
  -4274574.786 6  -4230642.471 6  21507279.388    21507284.251          18.500
        20.250
 -15695048.567 6 -12211055.906 6  21007236.388    21007241.755          19.500
        21.000
   -577830.867 6  -1049013.481 6  22289149.185    22289155.224          16.000
        15.250
  21532922.347 5  16779597.164 5  23929925.356    23929932.106           8.500
         8.500
 99  3  3  2 13 30.0010000  0  6G17G 5G30G 6G10G24
  -8872726.405 6  -6890369.201 6  22857011.185    22857017.739          12.000
        14.500
  16760971.461 5  13060497.665 5  23459370.614    23459377.036           8.750
        10.000
  -4238988.229 6  -4202912.686 6  21514051.239    21514056.099          18.750
        20.250
 -15709322.059 6 -12222178.098 6  21004520.247    21004525.622          19.500
        21.000
   -536305.136 6  -1016655.766 6  22297051.185    22297057.313          15.750
        15.000
  21575059.097 5  16812430.991 5  23937943.653    23937950.333           8.250
         8.500
 99  3  3  2 13 45.0010000  0  6G17G 5G30G 6G10G24
  -8897021.030 6  -6909300.048 6  22852388.021    22852394.575          12.000
        14.750
  16818209.892 5  13105099.034 5  23470262.739    23470269.130           8.750
         9.750
  -4203281.482 6  -4175089.253 6  21520845.927    21520850.853          18.250
        20.000
 -15723530.328 6 -12233249.458 6  21001816.372    21001821.837          19.500
        21.000
   -494680.926 6   -984221.307 6  22304972.060    22304978.106          15.750
        15.250
  21617187.935 5  16845258.657 5  23945960.427    23945967.204           8.250
         8.500
 99  3  3  2 14  0.0010000  0  6G17G 5G30G 6G10G24
  -8921266.758 6  -6928192.798 6  22847774.278    22847780.755          12.000
        14.750
  16875470.892 5  13149717.990 5  23481159.271    23481165.403           9.250
        10.000
  -4167451.753 6  -4147169.986 6  21527663.981    21527668.860          18.250
        20.000
 -15737674.006 6 -12244270.496 6  20999124.864    20999130.267          19.500
        21.000
   -452958.835 6   -951710.584 6  22312911.458    22312917.696          15.750
        15.250
  21659308.539 5  16878079.913 5  23953975.778    23953982.661           8.750
         8.500
 99  3  3  2 14 15.0010000  0  6G17G 5G30G 6G10G24
  -8945462.380 6  -6947046.504 6  22843169.841    22843176.388          12.000
        15.000
  16932756.431 5  13194356.077 5  23492060.606    23492066.778           9.500
        10.000
  -4131496.360 6  -4119152.799 6  21534506.208    21534511.067          18.500
        20.000
 -15751751.371 6 -12255239.862 6  20996446.114    20996451.474          19.500
        21.000
   -411137.781 6   -919122.745 6  22320869.708    22320876.048          15.250
        15.250
  21701424.180 5  16910897.294 5  23961989.927    23961996.583           8.750
         8.000
 99  3  3  2 14 30.0010000  0  6G17G 5G30G 6G10G24
  -8969610.970 6  -6965863.551 6  22838574.419    22838580.899          12.000
        14.750
  16990065.733 5  13239012.680 5  23502966.497    23502972.528           9.750
        10.250
  -4095418.633 6  -4091040.288 6  21541371.591    21541376.481          18.500
        20.000
 -15765764.303 6 -12266159.009 6  20993779.536    20993784.837          19.500
        21.000
   -369221.048 6   -886460.344 6  22328846.192    22328852.431          15.500
        15.250
  21743534.190 5  16943710.287 5  23970003.192    23970010.028           8.500
         8.250
 99  3  3  2 14 45.0010000  0  6G17G 5G30G 6G10G24
  -8993707.413 6  -6984639.984 6  22833988.989    22833995.595          12.000
        14.750
  17047403.917 5  13283691.788 5  23513877.567    23513883.833           9.500
        10.500
  -4059214.337 6  -4062829.153 6  21548261.036    21548265.935          18.500
        20.000
 -15779706.401 6 -12277022.973 6  20991126.333    20991131.606          19.500
        21.000
   -327205.870 6   -853721.245 6  22336841.372    22336847.563          15.500
        15.000
  21785643.229 5  16976522.533 5  23978016.450    23978022.731           8.500
         8.000
 99  3  3  2 15  0.0010000  0  6G17G 5G30G 6G10G24
  -9017756.623 6  -7003379.600 6  22829412.646    22829419.181          12.250
        15.000
  17104766.220 5  13328389.674 5  23524792.935    23524799.481           9.250
        10.500
  -4022887.371 6  -4034522.430 6  21555173.771    21555178.591          18.500
        19.750
 -15793580.326 6 -12287833.812 6  20988486.364    20988491.704          19.500
        21.000
   -285097.702 6   -820909.672 6  22344854.396    22344860.485          15.250
        15.250
  21827744.517 5  17009328.731 5  23986028.036    23986034.688           8.250
         8.000
 99  3  3  2 16 15.0010000  4  2
END OF STATIC OBSERVATION                                   COMMENT
1.060                                                       COMMENT
 99  3  3  2 16 15.0010000  0  6G17G 5G30G 6G10G24
  -9137183.099 6  -7096439.076 6  22806686.575    22806692.962          12.750
        15.000
  17392086.042 5  13552275.212 5  23579468.177    23579474.196           9.500
         9.500
  -3839381.656 6  -3891530.969 6  21590093.942    21590098.681          18.750
        20.250
 -15861819.265 6 -12341006.949 6  20975500.888    20975506.134          19.500
        21.000
    -73033.109 6   -655664.505 6  22385208.872    22385215.013          15.000
        14.750
  22038234.301 5  17173346.765 5  24026082.817    24026088.981           8.500
         7.250
 99  3  3  2 16 30.0010000  0  6G17G 5G30G 6G10G24
  -9160908.330 6  -7114926.251 6  22802171.755    22802178.103          12.750
        15.250
  17449658.306 5  13597136.706 5  23590424.067    23590429.927           9.500
         9.250
  -3802332.692 6  -3862661.649 6  21597144.153    21597148.946          18.500
        20.000
 -15875237.709 7 -12351462.871 6  20972947.458    20972952.700          20.000
        21.000
    -30302.071 6   -622367.592 6  22393340.138    22393346.349          14.750
        14.750
  22080320.552 5  17206141.248 5  24034091.903    24034098.024           8.750
         7.500
 99  3  3  2 16 45.0010000  4  1
1.060                                                       COMMENT
 99  3  3  2 16 45.0010000  0  6G17G 5G30G 6G10G24
  -9184577.991 6  -7133370.129 6  22797667.669    22797674.071          12.750
        15.250
  17507268.146 5  13642027.501 5  23601386.810    23601392.669           9.500
         9.500
  -3765169.360 6  -3833703.208 6  21604215.942    21604220.829          18.500
        20.000
 -15888573.409 6 -12361854.307 6  20970409.810    20970415.024          19.750
        20.750
     12537.883 6   -588985.794 6  22401492.427    22401498.681          14.750
        14.750
  22122404.778 5  17238934.169 5  24042100.153    24042106.454           8.750
         7.500
 99  3  3  2 17  0.0010000  4  1
1.060                                                       COMMENT
 99  3  3  2 17  0.0010000  0  6G17G 5G30G 6G10G24
  -9208200.916 6  -7151777.575 6  22793172.536    22793178.649          13.000
        15.250
  17564905.076 5  13686939.402 5  23612354.466    23612360.528           9.250
         9.500
  -3727898.237 6  -3804660.775 6  21611308.450    21611313.313          18.750
        20.250
 -15901835.128 6 -12372188.101 6  20967886.060    20967891.286          19.750
        20.750
     55480.810 6   -555523.772 6  22409664.177    22409670.353          14.750
        14.750
  22164479.226 5  17271719.429 5  24050106.474    24050112.724           8.250
         7.250
 99  3  3  2 17 15.0010000  0  6G17G 5G30G 6G10G24
  -9231780.155 6  -7170150.996 6  22788685.403    22788691.778          12.750
        15.500
  17622566.209 5  13731870.156 5  23623327.138    23623333.454           9.000
         9.750
  -3690519.685 6  -3775534.636 6  21618421.435    21618426.216          18.750
        20.000
 -15915025.191 6 -12382466.063 6  20965376.005    20965381.380          19.500
        21.000
     98525.067 6   -521982.785 6  22417855.106    22417861.325          14.750
        14.500
  22206545.018 5  17304497.986 5  24058111.638    24058118.075           8.500
         7.500
 99  3  3  2 17 30.0010000  0  6G17G 5G30G 6G10G24
  -9255325.025 6  -7188497.632 6  22784205.036    22784211.278          13.000
        15.000
  17680246.787 5  13776816.044 5  23634303.271    23634309.720           8.750
        10.000
  -3653040.656 6  -3746330.195 6  21625553.583    21625558.313          19.000
        20.250
 -15928151.632 6 -12392694.442 6  20962878.044    20962883.337          19.500
        20.750
    141664.944 6   -488367.291 6  22426064.427    22426070.665          14.750
        14.750
  22248595.890 5  17337264.900 5  24066113.567    24066119.462           8.500
         7.250
 99  3  3  2 17 45.0010000  0  6G17G 5G30G 6G10G24
  -9278828.256 6  -7206811.826 6  22779732.380    22779738.638          12.750
        15.250
  17737955.140 5  13821783.579 5  23645284.872    23645291.489           8.750
        10.000
  -3615453.835 6  -3717041.768 6  21632705.974    21632710.759          18.750
        20.250
 -15941202.488 6 -12402863.921 6  20960394.591    20960399.876          19.750
        20.750
    184906.619 6   -454672.469 6  22434293.200    22434299.396          14.750
        14.500
  22290638.364 5  17370025.272 5  24074113.521    24074120.509           8.250
         7.500
 99  3  3  2 18  0.0010000  0  6G17G 5G30G 6G10G24
  -9302292.089 6  -7225095.315 6  22775267.419    22775273.552          12.750
        15.500
  17795688.134 5  13866770.319 5  23656271.075    23656277.442           8.750
         9.750
  -3577761.605 6  -3687671.202 6  21639878.677    21639883.466          18.750
        20.500
 -15954181.124 6 -12412977.132 6  20957924.974    20957930.204          19.500
        20.750
    228243.255 6   -420903.661 6  22442539.724    22442545.938          14.500
        14.500
  22332669.724 5  17402776.990 5  24082112.075    24082118.419           8.250
         7.250
 99  3  3  2 18 15.0010000  0  6G17G 5G30G 6G10G24
  -9325716.396 6  -7243348.007 6  22770809.786    22770816.048          12.750
        15.250
  17853447.487 5  13911777.602 5  23667262.411    23667268.712           9.000
         9.750
  -3539958.642 6  -3658214.354 6  21647072.286    21647077.138          18.500
        20.250
 -15967088.468 6 -12423034.791 6  20955468.716    20955474.056          19.750
        20.750
    271671.282 6   -387063.639 6  22450803.614    22450809.962          14.500
        14.500
  22374693.013 5  17435522.409 5  24090108.880    24090115.282           8.250
         7.250
 99  3  3  2 18 30.0010000  0  6G17G 5G30G 6G10G24
  -9349099.650 6  -7261568.701 6  22766360.091    22766366.536          12.750
        15.250
  17911233.413 5  13956805.592 5  23678258.880    23678264.927           9.250
         9.500
  -3502040.712 6  -3628667.914 6  21654287.731    21654292.544          18.500
        20.000
 -15979925.403 6 -12433037.578 6  20953026.005    20953031.192          19.750
        20.500
    315188.621 6   -353154.017 6  22459084.880    22459091.083          14.500
        14.500
  22416711.635 5  17468264.192 5  24098104.817    24098111.302           8.000
         7.250
 99  3  3  2 18 45.0010000  0  6G17G 5G30G 6G10G24
  -9372440.145 6  -7279756.085 6  22761918.583    22761924.837          12.750
        15.250
  17969049.885 5  14001857.398 5  23689260.966    23689266.872           9.250
         9.000
  -3464005.692 6  -3599030.238 6  21661525.646    21661530.333          18.250
        20.000
 -15992690.844 6 -12442984.664 6  20950596.778    20950601.997          19.750
        21.000
    358799.502 6   -319171.501 6  22467383.622    22467390.071          14.500
        14.500
  22458728.667 5  17501004.733 5  24106100.067    24106106.993           8.000
         7.250
 99  3  3  2 19  0.0010000  0  6G17G 5G30G 6G10G24
  -9395737.842 6  -7297910.109 6  22757485.028    22757491.380          12.750
        15.250
  18026900.030 5  14046935.425 5  23700269.364    23700275.364           9.000
         9.000
  -3425850.708 6  -3569299.086 6  21668786.286    21668791.087          18.250
        20.000
 -16005386.122 6 -12452877.072 6  20948180.942    20948186.138          19.750
        20.750
    402504.263 6   -285115.836 6  22475700.247    22475706.708          14.500
        14.500
  22500742.732 5  17533742.974 5  24114095.169    24114101.872           8.000
         7.250
 99  3  3  2 19 15.0010000  0  6G17G 5G30G 6G10G24
  -9418992.480 6  -7316030.587 6  22753059.755    22753066.063          12.750
        15.250
  18084783.764 5  14092039.637 5  23711284.231    23711290.118           8.750
         9.000
  -3387573.185 6  -3539472.441 6  21676070.200    21676075.017          18.250
        20.000
 -16018010.479 7 -12462714.219 6  20945778.653    20945783.794          20.000
        20.750
    446301.997 6   -250987.727 6  22484034.864    22484041.192          14.250
        14.250
  22542754.544 5  17566479.456 5  24122089.716    24122096.497           7.750
         7.250
 99  3  3  2 19 30.0010000  0  6G17G 5G30G 6G10G24
  -9442205.061 6  -7334118.294 6  22748642.630    22748648.915          12.750
        15.250
  18142700.632 5  14137169.675 5  23722305.552    23722311.603           8.500
         9.000
  -3349176.783 6  -3509553.174 6  21683376.763    21683381.610          18.000
        19.750
 -16030566.817 7 -12472498.362 6  20943389.146    20943394.403          20.000
        20.500
    490189.292 6   -216789.834 6  22492386.435    22492392.688          14.750
        14.250
  22584763.013 5  17599213.319 5  24130083.786    24130090.220           8.000
         7.000
 99  3  3  2 19 45.0010000  0  6G17G 5G30G 6G10G24
  -9465371.652 6  -7352170.171 6  22744234.341    22744240.458          13.000
        15.000
  18200653.047 5  14182327.392 5  23733333.435    23733339.614           8.250
         9.250
  -3310661.945 6  -3479541.621 6  21690705.935    21690710.763          18.000
        19.500
 -16043053.588 7 -12482228.300 6  20941013.044    20941018.173          20.000
        20.500
    534167.920 6   -182520.769 6  22500755.396    22500761.560          14.500
        14.250
  22626769.427 5  17631945.591 5  24138077.349    24138083.884           8.000
         7.000
 99  3  3  2 20  0.0010000  0  6G17G 5G30G 6G10G24
  -9488487.505 6  -7370182.501 6  22739835.317    22739841.563          12.750
        15.000
  18258639.338 5  14227511.514 5  23744367.747    23744374.114           8.500
         9.250
  -3272028.069 6  -3449437.301 6  21698057.700    21698062.614          18.000
        19.750
 -16055472.531 7 -12491905.383 6  20938649.755    20938654.966          20.000
        20.500
    578238.397 6   -148180.119 6  22509141.622    22509147.841          14.500
        14.250
  22668776.839 5  17664678.638 5  24146071.075    24146077.942           8.000
         7.000
 99  3  3  2 20 15.0010000  0  6G17G 5G30G 6G10G24
  -9511552.330 6  -7388155.076 6  22735446.138    22735452.446          12.750
        15.000
  18316657.496 5  14272720.462 5  23755408.325    23755414.661           8.500
         9.250
  -3233274.212 6  -3419239.497 6  21705432.255    21705437.138          17.750
        19.750
 -16067825.112 7 -12501530.757 6  20936299.091    20936304.235          20.000
        20.500
    622401.759 6   -113767.117 6  22517545.669    22517551.751          14.500
        14.000
  22710787.094 5  17697413.914 5  24154065.380    24154071.884           8.000
         7.000
 99  3  3  2 20 30.0010000  0  6G17G 5G30G 6G10G24
  -9534567.274 6  -7406088.780 6  22731066.716    22731072.833          12.750
        14.750
  18374701.247 5  14317949.347 5  23766453.810    23766460.126           8.750
         9.500
  -3194404.704 6  -3388951.567 6  21712828.927    21712833.845          18.000
        20.000
 -16080110.841 7 -12511104.034 6  20933961.231    20933966.364          20.000
        20.500
    666655.581 6    -79283.606 6  22525966.794    22525973.036          14.500
        14.000
  22752797.309 5  17730149.154 5  24162059.591    24162066.110           8.000
         7.000
 99  3  3  2 20 45.0010000  0  6G17G 5G30G 6G10G24
  -9557534.750 6  -7423985.497 6  22726695.997    22726702.130          12.750
        15.000
  18432767.664 5  14363195.895 5  23777503.427    23777509.767           8.750
         9.500
  -3155424.575 6  -3358577.446 6  21720246.536    21720251.450          17.750
        20.000
 -16092328.318 7 -12520624.127 6  20931636.208    20931641.380          20.250
        20.500
    711000.829 6    -44728.867 6  22534405.552    22534411.642          14.500
        14.000
  22794804.096 5  17762881.726 5  24170053.286    24170059.599           7.750
         7.250
 99  3  3  2 21  0.0010000  0  6G17G 5G30G 6G10G24
  -9580453.700 6  -7441844.401 6  22722334.646    22722340.966          12.750
        15.250
  18490859.155 5  14408461.983 5  23788557.981    23788564.009           8.750
         9.250
  -3116333.190 6  -3328116.629 6  21727685.356    21727690.306          17.750
        20.000
 -16104475.179 7 -12530089.201 6  20929324.896    20929329.919          20.250
        20.500
    755438.169 6    -10102.363 6  22542861.599    22542867.825          14.750
        14.000
  22836806.642 5  17795610.983 5  24178046.161    24178053.103           7.750
         7.250
 99  3  3  2 21 15.0010000  0  7G17G 5G30G 6G26G10G24
  -9603319.800 6  -7459662.128 6  22717983.435    22717989.485          12.750
        15.000
  18548975.555 5  14453747.475 5  23799617.060    23799623.220           8.750
         9.250
  -3077128.474 6  -3297567.506 6  21735145.763    21735150.794          18.000
        19.500
 -16116547.887 7 -12539496.493 6  20927027.458    20927032.575          20.000
        20.500
    -34565.067 4     -3846.35515  24185579.731    24185584.591           6.750
         4.500
    799966.775 6     24595.256 6  22551335.114    22551341.161          14.750
        14.000
  22878807.206 5  17828338.696 5  24186038.802    24186044.595           7.750
         6.750
 99  3  3  2 21 30.0010000  0  7G17G 5G30G 6G26G10G24
  -9626132.843 6  -7477438.499 6  22713642.075    22713648.192          13.000
        15.000
  18607111.392 5  14499048.122 5  23810679.896    23810686.126           8.750
         9.000
  -3037816.332 6  -3266934.668 6  21742626.747    21742631.677          18.000
        20.000
 -16128547.875 7 -12548847.118 6  20924743.989    20924748.911          20.250
        20.250
    -71584.216 4    -32692.430 5  24178534.302    24178540.138           6.250
         4.750
    844581.940 6     59360.325 6  22559825.044    22559831.083          14.750
        13.750
  22920803.679 5  17861063.221 5  24194029.872    24194037.071           7.750
         7.000
 99  3  3  2 21 45.0010000  0  7G17G 5G30G 6G26G10G24
  -9648884.765 6  -7495167.248 6  22709312.552    22709318.720          13.000
        15.250
  18665272.081 5  14544368.153 5  23821747.513    23821753.548           8.750
         9.000
  -2998393.075 6  -3236215.248 6  21750128.724    21750133.595          18.000
        19.750
 -16140469.338 7 -12558136.559 6  20922475.403    20922480.380          20.250
        20.250
   -108579.585 4    -61519.952 5  24171495.325    24171499.915           6.500
         4.750
    889288.963 6     94196.969 6  22568332.372    22568338.634          14.250
        13.750
  22962798.178 5  17893786.210 5  24202021.739    24202027.966           7.750
         7.250
 99  3  3  2 22  0.0010000  0  7G17G 5G30G 6G26G10G24
  -9671581.102 6  -7512852.691 6  22704993.614    22704999.915          13.250
        15.250
  18723451.251 5  14589702.560 5  23832818.763    23832824.735           8.500
         8.750
  -2958862.484 6  -3205412.193 6  21757651.138    21757655.915          18.000
        19.750
 -16152314.069 7 -12567366.204 6  20920221.380    20920226.392          20.000
        20.250
   -145555.706 3    -90332.494 5  24164458.231    24164464.122           6.000
         4.750
    934082.408 6    129100.960 6  22576856.614    22576862.599          14.500
        13.500
  23004783.082 5  17926501.716 5  24210011.021    24210017.849           7.500
         7.250
 99  3  3  2 22 15.0010000  0  7G17G 5G30G 6G26G10G24
  -9694226.916 6  -7530498.761 6  22700684.216    22700690.306          13.250
        15.250
  18781642.511 5  14635046.399 5  23843892.161    23843898.181           8.500
         8.750
  -2919224.955 6  -3174525.808 6  21765193.864    21765198.626          18.000
        19.750
 -16164081.544 7 -12576535.648 6  20917982.083    20917987.142          20.000
        20.000
   -182516.530 3   -119133.111 5  24157424.724    24157430.032           5.750
         4.750
    978957.013 6    164068.190 6  22585395.989    22585401.989          14.750
        13.500
  23046754.499 5  17959206.718 5  24217997.786    24218004.384           7.500
         7.000
 99  3  3  2 22 30.0010000  0  7G17G 5G30G 6G26G10G24
  -9716821.634 6  -7548105.016 6  22696384.794    22696390.896          13.250
        15.750
  18839852.621 5  14680404.927 5  23854969.052    23854975.122           8.250
         8.750
  -2879475.332 6  -3143552.081 6  21772758.060    21772762.872          18.000
        19.500
 -16175763.766 7 -12585638.660 6  20915759.091    20915764.087          20.250
        20.000
   -219461.166 3   -147921.112 5  24150394.653    24150399.868           5.500
         4.750
   1023918.275 6    199102.939 6  22593951.763    22593957.856          14.750
        13.500
  23088714.768 5  17991903.045 5  24225982.817    24225989.446           7.500
         7.000
 99  3  3  2 22 45.0010000  0  7G17G 5G30G 6G26G10G24
  -9739369.133 6  -7565674.478 6  22692093.981    22692100.212          13.000
        15.750
  18898079.065 5  14725776.179 5  23866049.247    23866055.423           8.500
         9.250
  -2839614.744 6  -3112491.878 6  21780343.185    21780348.134          18.000
        20.000
 -16187361.511 7 -12594675.850 6  20913551.927    20913556.954          20.250
        20.000
   -256392.097 3   -176698.409 5  24143366.411    24143372.196           5.000
         5.250
   1068965.769 6    234204.892 6  22602523.997    22602529.880          14.750
        13.250
  23130658.391 4  18024586.380 5  24233964.505    24233970.735           7.250
         6.750
 99  3  3  2 23  0.0010000  0  7G17G 5G30G 6G26G10G24
  -9761875.365 6  -7583211.770 6  22687811.208    22687817.462          13.250
        15.750
  18956318.886 5  14771157.853 5  23877132.005    23877138.337           8.500
         9.000
  -2799645.956 6  -3081347.374 6  21787949.075    21787953.868          18.250
        19.750
 -16198879.145 7 -12603650.615 6  20911360.161    20911365.134          20.250
        19.750
   -293307.794 3   -205463.859 5  24136341.646    24136347.333           5.500
         5.500
   1114094.422 6    269370.086 6  22611111.817    22611117.677          14.750
        13.500
  23172582.066 5  18057254.178 5  24241942.177    24241948.728           7.500
         6.750
 99  3  3  2 23 15.0010000  0  7G17G 5G30G 6G26G10G24
  -9784339.134 6  -7600715.984 6  22683536.489    22683542.755          13.250
        16.000
  19014569.596 5  14816548.014 5  23888216.583    23888222.903           8.500
         9.000
  -2759569.828 6  -3050119.223 6  21795575.317    21795580.243          18.000
        19.500
 -16210317.332 7 -12612563.473 6  20909183.544    20909188.563          20.250
        19.750
   -330205.097 3   -234214.967 5  24129320.153    24129326.692           5.250
         5.750
   1159303.114 6    304597.640 6  22619714.716    22619720.442          14.750
        13.250
  23214487.608 4  18089907.858 5  24249916.755    24249922.735           7.250
         6.500
 99  3  3  2 23 30.0010000  0  7G17G 5G30G 6G26G10G24
  -9806758.223 6  -7618185.377 6  22679270.325    22679276.552          13.500
        15.500
  19072832.316 5  14861947.530 5  23899303.849    23899310.149           8.750
         9.250
  -2719383.861 6  -3018805.486 6  21803222.481    21803227.345          18.000
        19.750
 -16221671.049 7 -12621410.515 6  20907023.013    20907027.978          20.000
        19.750
   -367078.295 3   -262947.285 5  24122304.325    24122309.810           5.750
         6.250
   1204597.931 6    339892.311 6  22628334.052    22628339.989          14.750
        13.250
  23256381.756 4  18122552.649 5  24257888.419    24257895.407           6.750
         6.750
 99  3  3  2 23 45.0010000  0  7G17G 5G30G 6G26G10G24
  -9829133.976 6  -7635621.008 6  22675012.278    22675018.485          13.250
        16.000
  19131107.009 5  14907356.370 5  23910393.083    23910399.310           8.500
         8.750
  -2679091.608 6  -2987408.931 6  21810889.896    21810894.673          18.000
        19.500
 -16232940.784 7 -12630192.116 6  20904878.521    20904883.528          20.250
        19.750
   -403928.950 3   -291662.038 5  24115290.700    24115297.478           5.500
         6.500
   1249981.743 6    375256.327 6  22636970.349    22636976.134          14.750
        13.500
  23298265.933 4  18155189.666 5  24265858.427    24265865.153           6.750
         6.750
 99  3  3  2 24  0.0010000  0  7G17G 5G30G 6G26G10G24
  -9851467.291 6  -7653023.571 6  22670762.380    22670768.657          13.250
        16.250
  19189396.601 5  14952776.825 5  23921485.333    23921491.384           8.750
         8.500
  -2638691.454 6  -2955928.293 6  21818577.661    21818582.431          18.000
        19.750
 -16244125.483 7 -12638907.450 6  20902750.169    20902754.970          20.000
        19.500
   -440755.182 3   -320357.767 5  24108283.817    24108289.774           6.000
         6.750
   1295458.487 6    410692.752 6  22645624.317    22645629.923          14.750
        13.250
  23340141.272 4  18187819.798 5  24273827.396    24273834.364           6.750
         7.250
 99  3  3  2 24 15.0010000  0  7G17G 5G30G 6G26G10G24
  -9873761.293 6  -7670395.495 6  22666519.888    22666526.306          13.250
        16.000
  19247698.421 5  14998206.819 5  23932579.661    23932585.720           8.500
         8.750
  -2598184.514 6  -2924364.444 6  21826285.919    21826290.759          18.000
        19.500
 -16255225.149 7 -12647556.525 6  20900637.911    20900642.802          20.250
        19.750
   -477555.357 3   -349033.179 5  24101279.716    24101286.399           5.750
         6.500
   1341026.751 6    446200.500 6  22654295.700    22654301.396          14.750
        13.250
  23382007.908 4  18220443.164 5  24281793.880    24281800.696           6.500
         7.000
 99  3  3  2 24 30.0010000  0  7G17G 5G30G 6G26G10G24
  -9896014.912 6  -7687735.953 6  22662285.005    22662291.481          13.250
        16.000
  19306015.690 5  15043648.849 5  23943676.981    23943683.095           8.500
         8.750
  -2557572.213 6  -2892718.494 6  21834014.067    21834018.997          18.000
        19.500
 -16266244.676 7 -12656143.162 6  20898540.911    20898545.806          20.000
        19.500
   -514330.582 4   -377689.138 5  24094283.224    24094288.310           6.500
         6.750
   1386686.217 6    481779.309 6  22662984.372    22662990.036          14.750
        13.250
  23423864.636 4  18253058.793 5  24289759.044    24289766.478           6.250
         7.250
 99  3  3  2 24 45.0010000  0  7G17G 5G30G 6G26G10G24
  -9918225.165 6  -7705042.621 6  22658058.685    22658065.099          13.000
        16.250
  19364348.808 5  15089103.224 5  23954777.325    23954783.419           8.250
         8.750
  -2516858.549 6  -2860993.567 6  21841761.731    21841766.688          17.750
        19.500
 -16277187.080 7 -12664669.695 6  20896458.489    20896463.489          20.000
        19.500
   -551079.073 4   -406324.295 5  24087289.138    24087295.704           6.500
         7.000
   1432437.010 6    517429.281 6  22671690.450    22671696.188          14.750
        13.250
  23465711.718 3  18285666.911 5  24297722.255    24297729.286           6.000
         7.250
 99  3  3  2 25  0.0010000  0  7G17G 5G30G 6G26G10G24
  -9940386.116 6  -7722310.871 6  22653841.450    22653847.767          13.250
        16.250
  19422697.278 5  15134569.561 5  23965880.661    23965886.817           8.250
         8.500
  -2476044.331 6  -2829190.280 6  21849528.396    21849533.399          17.750
        19.500
 -16288053.220 7 -12673136.805 6  20894390.864    20894395.833          20.000
        19.500
   -587798.660 4   -434936.919 5  24080302.341    24080307.255           7.250
         6.500
   1478278.710 6    553150.086 6  22680413.833    22680419.544          14.750
        13.000
  23507554.328 3  18318271.526 5  24305684.302    24305691.966           6.000
         7.250
 99  3  3  2 25 15.0010000  0  7G17G 5G30G 6G26G10G24
  -9962495.757 6  -7739539.142 6  22649634.130    22649640.509          13.250
        16.250
  19481062.639 5  15180049.056 5  23976987.083    23976993.384           8.000
         8.500
  -2435131.573 6  -2797310.213 6  21857313.841    21857318.747          17.500
        19.500
 -16298846.306 7 -12681546.991 6  20892337.005    20892341.825          20.000
        19.500
   -624491.009 4   -463528.339 5  24073319.630    24073325.532           7.000
         6.750
   1524209.468 6    588940.292 6  22689154.263    22689159.778          14.500
        13.000
  23549394.432 3  18350874.206 5  24313646.122    24313653.673           6.000
         7.250
 99  3  3  2 25 30.0010000  0  7G17G 5G30G 6G26G10G24
  -9984551.067 6  -7756725.069 6  22645437.122    22645443.454          13.500
        16.250
  19539448.526 5  15225544.539 5  23988097.825    23988103.985           8.000
         8.250
  -2394118.325 6  -2765351.847 6  21865118.380    21865123.317          17.500
        19.250
 -16309564.796 7 -12689899.044 6  20890297.466    20890302.462          20.000
        20.000
   -661157.170 4   -492099.334 5  24066342.435    24066347.724           7.250
         6.750
   1570231.666 6    624801.751 6  22697911.849    22697917.677          14.500
        13.000
  23591234.887 3  18383477.151 5  24321608.005    24321615.552           5.750
         7.000
 99  3  3  2 25 45.0010000  0  7G17G 5G30G 6G26G10G24
 -10006554.160 6  -7773870.313 6  22641250.114    22641256.485          13.500
        16.250
  19597854.340 5  15271055.568 5  23999212.122    23999218.310           7.750
         8.500
  -2353005.148 6  -2733315.610 6  21872942.091    21872946.946          17.500
        19.250
 -16320211.787 7 -12698195.389 6  20888271.372    20888276.286          20.000
        20.000
   -697798.984 4   -520651.372 5  24059369.231    24059375.130           6.750
         6.750
   1616342.091 6    660731.958 6  22706686.263    22706692.009          14.750
        13.000
  23633070.145 3  18416076.035 5  24329568.380    24329576.356           5.500
         7.000
 99  3  3  2 26  0.0010000  0  7G17G 5G30G 6G26G10G24
 -10028502.863 6  -7790973.168 6  22637073.599    22637079.868          13.500
        16.250
  19656280.812 5  15316582.679 5  24010330.224    24010336.427           7.750
         8.500
  -2311789.008 6  -2701199.139 6  21880785.146    21880790.028          17.250
        19.250
 -16330787.090 7 -12706435.869 6  20886258.841    20886263.731          20.000
        20.000
   -734414.961 4   -549183.255 5  24052401.888    24052407.767           6.750
         7.250
   1662539.034 6    696729.577 6  22715477.310    22715483.091          14.500
        13.000
  23674896.170 3  18448667.742 5  24337528.122    24337536.040           5.500
         7.250
 99  3  3  2 26 15.0010000  0  7G17G 5G30G 6G26G10G24
 -10050398.285 6  -7808034.510 6  22632906.872    22632913.142          13.500
        16.500
  19714726.512 5  15362124.776 5  24021452.130    24021458.247           7.750
         8.500
  -2270468.794 6  -2669001.576 6  21888648.138    21888652.966          17.250
        19.250
 -16341291.974 7 -12714621.478 6  20884259.763    20884264.696          20.250
        20.000
   -771006.456 4   -577696.070 5  24045438.466    24045444.521           6.750
         7.000
   1708816.724 6    732790.121 6  22724283.591    22724289.384          14.250
        13.000
  23716712.036 3  18481251.544 5  24345485.083    24345493.091           5.500
         7.250
 99  3  3  2 26 30.0010000  0  7G17G 5G30G 6G26G10G24
 -10072241.361 6  -7825055.063 6  22628750.317    22628756.388          13.750
        16.250
  19773190.895 5  15407681.439 5  24032577.521    24032583.657           7.750
         8.750
  -2229046.180 6  -2636724.213 6  21896530.427    21896535.274          17.250
        19.000
 -16351727.091 7 -12722752.723 6  20882274.036    20882278.942          20.250
        20.000
   -807578.462 4   -606193.705 5  24038478.942    24038484.942           6.750
         6.750
   1755170.834 6    768910.212 6  22733104.544    22733110.231          14.250
        13.000
  23758519.942 3  18513829.126 5  24353440.864    24353449.173           5.500
         7.250
 99  3  3  2 26 45.0010000  0  7G17G 5G30G 6G26G10G24
 -10094030.342 6  -7842033.467 6  22624604.146    22624610.255          13.750
        16.500
  19831675.268 5  15453253.677 5  24043706.763    24043713.185           7.750
         8.500
  -2187522.650 6  -2604368.219 6  21904432.161    21904436.997          17.000
        19.000
 -16362090.659 7 -12730828.215 6  20880301.958    20880306.907          20.250
        20.000
   -844129.873 4   -634675.294 5  24031523.169    24031529.263           6.750
         6.750
   1801603.028 6    805091.144 6  22741940.130    22741946.126          14.250
        13.000
  23800325.053 3  18546404.534 5  24361396.255    24361403.856           5.500
         7.250
 99  3  3  2 27  0.0010000  0  7G17G 5G30G 6G26G10G24
 -10115770.752 6  -7858974.017 6  22620466.966    22620472.989          13.750
        16.250
  19890174.294 5  15498837.342 5  24054838.747    24054845.103           7.750
         8.250
  -2145902.973 6  -2571937.304 6  21912352.255    21912357.017          17.250
        19.000
 -16372381.160 7 -12738846.777 6  20878343.708    20878348.716          20.250
        19.750
   -880661.108 4   -663141.151 5  24024572.138    24024577.626           6.750
         6.500
   1848111.854 6    841331.795 6  22750790.489    22750796.388          14.000
        13.000
  23842126.100 3  18578976.787 5  24369350.192    24369358.931           5.500
         7.250
 99  3  3  2 27 15.0010000  0  7G17G 5G30G 6G26G10G24
 -10137464.263 6  -7875878.026 6  22616338.911    22616345.044          13.750
        16.250
  19948689.388 5  15544433.513 5  24065973.724    24065979.790           7.500
         8.250
  -2104184.226 6  -2539429.184 6  21920290.966    21920295.876          17.250
        19.250
 -16382594.763 7 -12746805.420 6  20876400.239    20876405.067          20.250
        20.000
   -917170.816 4   -691590.250 5  24017624.114    24017629.735           6.500
         6.500
   1894698.626 6    877633.179 6  22759655.692    22759661.587          14.000
        13.000
  23883922.261 3  18611545.212 5  24377304.560    24377312.524           5.500
         7.250
 99  3  3  2 27 30.0010000  0  7G17G 5G30G 6G26G10G24
 -10159112.411 6  -7892746.687 6  22612219.192    22612225.372          13.750
        16.250
  20007220.888 5  15590042.470 5  24077111.880    24077118.153           7.500
         8.250
  -2062365.492 6  -2506843.163 6  21928248.841    21928253.669          17.250
        19.000
 -16392730.036 7 -12754703.017 6  20874471.575    20874476.411          20.250
        19.750
   -953657.610 4   -720021.478 5  24010681.239    24010686.845           6.750
         6.500
   1941363.869 6    913995.712 6  22768535.661    22768541.728          14.000
        13.000
     13925.56213                                  24385256.536           5.500

 99  3  3  2 27 45.0010000  0  7G17G 5G30G 6G26G10G24
 -10180716.753 6  -7909581.220 6  22608107.981    22608114.204          13.750
        16.250
  20065765.167 5  15635661.381 5  24088252.310    24088258.731           7.500
         8.500
  -2020448.691 6  -2474180.716 6  21936225.341    21936230.181          17.000
        18.750
 -16402785.258 7 -12762538.240 6  20872557.981    20872562.755          20.250
        19.500
   -990120.392 4   -748434.004 5  24003741.825    24003748.103           6.500
         6.750
   1988105.969 6    950418.134 6  22777430.521    22777436.556          13.750
        12.750
     55703.796 3     30380.75515  24393206.997    24393215.165           5.750
         7.750
 99  3  3  2 28  0.0010000  0  7G17G 5G30G 6G26G10G24
 -10202277.152 6  -7926381.499 6  22604005.185    22604011.259          13.750
        16.000
  20124318.814 5  15681287.598 5  24099394.950    24099401.208           7.500
         8.500
  -1978435.600 6  -2441443.248 6  21944220.208    21944225.103          17.000
        19.000
 -16412761.219 7 -12770311.705 6  20870659.786    20870664.388          20.500
        19.500
  -1026560.025 4   -776828.493 5  23996807.935    23996813.669           7.000
         6.500
   2034925.696 6    986901.040 6  22786339.724    22786345.868          13.500
        13.000
     97468.894 3     62924.998 5  24401154.903    24401162.728           5.750
         7.500
 99  3  3  2 28 15.0010000  0  7G17G 5G30G 6G26G10G24
 -10223789.718 6  -7943144.511 6  22599911.544    22599917.622          13.750
        16.250
  20182885.096 5  15726923.654 5  24110539.536    24110545.892           7.500
         8.250
  -1936323.682 6  -2408628.769 6  21952233.864    21952238.700          17.250
        18.750
 -16422652.531 7 -12778019.207 6  20868777.575    20868782.306          20.500
        19.750
  -1062973.949 4   -805202.953 5  23989878.771    23989884.833           6.750
         6.750
   2081827.069 6   1023447.575 6  22795264.950    22795270.981          13.500
        12.750
    139229.042 3     95465.356 5  24409101.224    24409109.243           5.750
         7.500
 99  3  3  2 28 30.0010000  0  7G17G 5G30G 6G26G10G24
 -10245257.298 6  -7959872.476 6  22595826.325    22595832.360          13.750
        16.250
  20241464.141 5  15772569.659 5  24121686.919    24121693.353           7.500
         8.250
  -1894115.613 6  -2375739.365 6  21960265.747    21960270.649          17.250
        19.000
 -16432458.809 7 -12785660.447 6  20866911.435    20866916.255          20.500
        19.500
  -1099364.105 4   -833558.880 5  23982954.177    23982959.642           7.250
         6.750
   2128808.871 6   1060056.776 6  22804205.239    22804211.247          13.500
        12.750
    180984.301 3    128001.915 5  24417047.161    24417054.798           6.000
         7.500
 99  3  3  2 28 45.0010000  0  7G17G 5G30G 6G26G10G24
 -10266679.982 6  -7976565.445 6  22591749.575    22591755.810          13.500
        16.250
  20300054.478 5  15818224.460 5  24132836.310    24132842.595           7.500
         8.250
  -1851812.829 6  -2342776.151 6  21968315.739    21968320.646          17.500
        19.250
 -16442181.812 7 -12793236.799 6  20865061.138    20865065.962          20.500
        19.500
  -1135726.871 4   -861893.466 5  23976034.083    23976039.763           6.750
         6.750
   2175875.354 6   1096731.948 6  22813161.638    22813167.618          13.500
        12.750
    222732.127 4    160532.676 5  24424991.849    24424999.845           6.250
         7.750
 99  3  3  2 29  0.0010000  0  7G17G 5G30G 6G26G10G24
 -10288056.072 6  -7993222.122 6  22587681.802    22587688.106          13.500
        16.250
  20358655.153 5  15863887.316 5  24143987.669    24143994.040           7.500
         8.250
  -1809412.214 6  -2309736.715 6  21976384.302    21976389.122          17.500
        19.250
 -16451820.158 7 -12800747.183 6  20863227.052    20863231.790          20.500
        19.750
  -1172057.266 4   -890202.849 5  23969121.106    23969127.032           7.250
         6.750
   2223030.501 6   1133476.227 6  22822135.028    22822141.208          13.250
        13.000
    264469.196 4    193055.081 5  24432934.497    24432941.696           6.250
         7.750
 99  3  3  2 29 15.0010000  0  7G17G 5G30G 6G26G10G24
 -10309387.373 6  -8009843.888 6  22583622.575    22583628.704          13.500
        16.000
  20417263.454 5  15909556.125 5  24155140.419    24155146.794           7.500
         9.000
  -1766912.273 6  -2276619.878 6  21984471.794    21984476.681          17.750
        19.000
 -16461375.884 7 -12808193.188 6  20861408.692    20861413.419          20.500
        19.750
  -1208354.422 4   -918486.313 5  23962213.356    23962218.759           6.750
         6.500
   2270272.055 6   1170287.847 6  22831124.794    22831130.950          13.500
        13.000
    306190.076 4    225564.861 5  24440873.747    24440881.333           6.250
         7.250
 99  3  3  2 29 30.0010000  0  7G17G 5G30G 6G26G10G24
 -10330671.654 6  -8026429.017 6  22579572.138    22579578.146          13.750
        16.000
  20475880.750 5  15955231.950 5  24166294.997    24166301.321           7.500
         8.250
  -1724310.347 6  -2243423.571 6  21992578.661    21992583.560          17.500
        18.750
 -16470849.347 7 -12815575.092 6  20859605.950    20859610.755          20.500
        19.750
  -1244617.710 4   -946743.401 5  23955313.169    23955318.841           7.250
         6.750
   2317598.195 6   1207165.355 6  22840130.700    22840136.778          13.250
        13.000
    347896.504 4    258063.359 5  24448810.091    24448817.286           6.500
         7.750
 99  3  3  2 29 45.0010000  0  7G17G 5G30G 6G26G10G24
 -10351910.531 6  -8042978.762 6  22575530.763    22575536.845          13.750
        16.250
  20534507.088 4  16000914.804 5  24177451.286    24177457.517           7.250
         8.250
  -1681609.469 6  -2210150.165 6  22000704.435    22000709.282          17.500
        18.750
 -16480244.208 7 -12822895.750 6  20857818.122    20857822.872          20.500
        19.750
  -1280847.853 4   -974974.660 5  23948418.278    23948424.001           7.250
         6.750
   2365008.250 6   1244108.264 6  22849152.560    22849158.681          13.250
        13.000
    389588.204 4    290550.400 5  24456744.216    24456751.665           6.500
         7.750
 99  3  3  2 30  0.0010000  0  7G17G 5G30G 6G26G10G24
 -10373101.722 6  -8059491.352 6  22571498.161    22571504.173          13.750
        16.000
  20593144.332 4  16046606.159 5  24188609.396    24188615.712           6.750
         8.250
  -1638806.067 6  -2176796.861 6  22008849.606    22008854.458          17.500
        18.750
 -16489556.486 7 -12830152.052 6  20856046.099    20856050.735          20.500
        19.750
  -1317041.688 5  -1003177.619 5  23941530.958    23941537.087           7.500
         6.750
   2412504.341 6   1281118.209 6  22858190.802    22858196.981          13.250
        12.750
    431269.930 4    323029.650 5  24464675.794    24464683.036           6.750
         7.500
 99  3  3  2 30 15.0010000  0  7G17G 5G30G 6G26G10G24
 -10394247.786 6  -8075968.781 6  22567474.106    22567480.259          13.750
        16.000
  20651791.946 4  16092305.581 5  24199769.591    24199776.079           6.500
         8.250
  -1595902.030 6  -2143365.141 6  22017014.005    22017018.837          17.500
        18.750
 -16498789.094 7 -12837346.278 6  20854289.161    20854293.872          20.500
        19.750
  -1353199.853 4  -1031352.787 5  23934650.630    23934655.927           7.000
         7.000
   2460082.904 6   1318192.418 6  22867244.528    22867250.685          13.250
        13.000
    472943.102 4    355502.246 5  24472605.560    24472613.200           6.750
         7.750
 99  3  3  2 30 30.0010000  0  7G17G 5G30G 6G26G10G24
 -10415349.630 6  -8092411.753 6  22563458.450    22563464.571          13.750
        16.000
  20710451.472 4  16138014.294 5  24210932.036    24210938.563           6.500
         8.250
  -1552898.125 6  -2109855.607 6  22025197.388    22025202.212          17.500
        18.750
 -16507941.133 7 -12844477.727 6  20852547.591    20852552.290          20.500
        19.750
  -1389320.187 4  -1059498.482 5  23927776.864    23927782.618           6.750
         6.750
   2507740.490 6   1355328.206 6  22876313.560    22876319.763          13.250
        13.000
    514608.092 4    387968.472 5  24480534.950    24480541.833           6.750
         7.750
 99  3  3  2 30 45.0010000  0  7G17G 5G30G 6G26G10G24
 -10436408.169 6  -8108820.974 6  22559451.255    22559457.216          14.000
        16.250
  20769120.409 4  16183730.349 5  24222096.575    24222102.821           6.500
         8.000
  -1509794.798 6  -2076268.596 6  22033399.692    22033404.462          17.500
        18.750
 -16517014.239 7 -12851547.662 6  20850821.005    20850825.774          20.500
        19.750
  -1425400.913 4  -1087613.288 5  23920911.231    23920916.841           6.750
         6.750
   2555477.532 6   1392525.906 6  22885397.606    22885403.677          13.250
        12.750
    556265.260 4    420428.606 5  24488461.708    24488469.091           6.750
         7.500
 99  3  3  2 31  0.0010000  0  7G17G 5G30G 6G26G10G24
 -10457424.643 6  -8125197.429 6  22555451.989    22555458.024          14.000
        16.250
  20827794.360 4  16229450.300 5  24233261.778    24233268.071           6.500
         8.000
  -1466594.127 6  -2042605.739 6  22041620.560    22041625.431          17.000
        18.750
 -16526008.553 7 -12858556.204 6  20849109.411    20849114.196          20.250
        19.750
  -1461442.325 4  -1115697.487 5  23914052.528    23914057.657           6.750
         6.500
   2603293.309 6   1429784.956 6  22894496.700    22894502.821          13.250
        12.750
    597914.432 4    452882.498 5  24496387.669    24496394.716           7.000
         7.500
 99  3  3  2 31 15.0010000  0  7G17G 5G30G 6G26G10G24
 -10478397.196 6  -8141539.654 6  22551461.028    22551466.927          14.250
        16.250
  20886478.065 4  16275177.867 5  24244428.778    24244435.255           6.500
         8.000
  -1423291.863 6  -2008863.715 6  22049860.481    22049865.341          17.000
        18.500
 -16534918.152 7 -12865498.738 6  20847414.044    20847418.813          20.500
        20.000
  -1497443.058 4  -1143749.982 5  23907201.997    23907207.325           6.750
         6.500
   2651187.758 6   1467105.314 6  22903610.739    22903616.802          13.250
        12.750
    639561.073 4    485334.421 5  24504312.216    24504319.177           6.750
         7.500
 99  3  3  2 31 30.0010000  0  7G17G 5G30G 6G26G10G24
 -10499329.720 6  -8157850.677 6  22547477.708    22547483.415          14.250
        16.250
  20945171.771 4  16320913.231 5  24255597.958    24255604.110           6.750
         8.000
  -1379892.653 6  -1975046.146 6  22058119.146    22058124.024          17.000
        18.750
 -16543745.079 7 -12872376.845 6  20845734.130    20845739.013          20.250
        19.750
  -1533408.872 4  -1171775.274 5  23900357.630    23900362.989           6.750
         6.750
   2699156.703 6   1504483.714 6  22912739.013    22912745.040          13.250
        12.750
    681206.478 4    517785.370 5  24512237.817    24512245.173           7.250
         7.750
 99  3  3  2 31 45.0010000  0  7G17G 5G30G 6G26G10G24
 -10520223.134 6  -8174131.241 6  22543501.872    22543507.688          14.250
        16.250
  21003875.047 4  16366656.040 5  24266768.786    24266775.161           6.750
         7.750
  -1336399.443 6  -1941155.334 6  22066395.653    22066400.438          16.750
        18.500
 -16552490.755 7 -12879191.647 6  20844069.864    20844074.771          20.250
        20.000
  -1569343.225 4  -1199776.054 5  23893519.278    23893525.157           6.250
         6.500
   2747198.981 6   1541919.260 6  22921881.153    22921887.138          13.250
        12.750
    722850.893 4    550235.550 5  24520162.427    24520168.661           7.250
         7.250
 99  3  3  2 32  0.0010000  0  6G17G 5G30G 6G26G10
 -10541072.893 6  -8190377.785 6  22539534.208    22539540.142          14.500
        16.250
  21062590.346 4  16412408.216 5  24277942.083    24277948.263           6.750
         7.750
  -1292808.075 6  -1907188.034 6  22074690.802    22074695.646          16.750
        18.500
 -16561148.501 7 -12885937.931 6  20842422.302    20842427.263          20.000
        19.750
  -1605240.411 4  -1227747.856 5  23886688.372    23886693.771           6.250
         6.500
   2795318.741 6   1579415.181 6  22931038.021    22931044.005          13.250
        12.750
 99  3  3  2 32 15.0010000  0  6G17G 5G30G 6G26G10
 -10561882.389 6  -8206592.958 6  22535574.325    22535580.106          14.500
        16.250
  21121311.472 4  16458164.937 5  24289116.450    24289122.696           6.750
         7.750
  -1249121.360 6  -1873146.440 6  22083004.122    22083008.974          16.500
        18.500
 -16569719.917 7 -12892616.943 6  20840791.169    20840796.114          20.000
        20.000
  -1641104.872 4  -1255694.156 5  23879863.755    23879869.544           6.250
         6.500
   2843510.181 6   1616966.954 6  22940208.552    22940214.458          13.250
        12.750
 99  3  3  2 32 30.0010000  0  6G17G 5G30G 6G26G10
 -10582654.854 6  -8222779.267 6  22531621.474    22531627.282          14.500
        16.500
  21180036.917 4  16503925.017 5  24300291.669    24300297.485           6.500
         7.750
  -1205342.490 6  -1839033.029 6  22091334.966    22091339.864          16.500
        18.500
 -16578206.944 7 -12899230.194 6  20839176.169    20839181.181          20.000
        20.000
  -1676939.519 3  -1283617.227 5  23873044.325    23873050.099           6.000
         6.500
   2891771.736 6   1654573.368 6  22949392.396    22949398.399          13.250
        12.750
 99  3  3  2 32 45.0010000  0  6G17G 5G30G 6G26G10
 -10603383.778 6  -8238931.659 6  22527677.036    22527682.786          14.750
        16.500
  21238772.209 4  16549692.793 5  24311468.325    24311474.876           6.250
         7.750
  -1161464.497 6  -1804842.388 6  22099684.700    22099689.544          16.250
        18.500
 -16586600.430 7 -12905770.561 6  20837578.950    20837583.868          20.000
        20.000
  -1712738.277 3  -1311512.345 5  23866232.380    23866237.661           6.000
         6.500
   2940113.369 6   1692242.172 6  22958591.481    22958597.403          13.250
        12.750
 99  3  3  2 33  0.0010000  0  6G17G 5G30G 6G26G10
 -10624070.873 6  -8255051.444 6  22523740.239    22523746.149          14.750
        16.750
  21297515.389 4  16595466.706 5  24322646.841    24322653.251           6.250
         7.750
  -1117488.546 6  -1770575.414 6  22108052.903    22108057.935          16.000
        18.250
 -16594902.215 6 -12912239.475 6  20835999.192    20836004.126          19.750
        19.750
  -1748501.882 4  -1339380.079 5  23859426.231    23859431.892           6.250
         6.500
   2988533.541 6   1729972.183 6  22967805.567    22967811.642          13.250
        12.750
 99  3  3  2 33 15.0010000  0  6G17G 5G30G 6G26G10
 -10644715.956 6  -8271138.503 6  22519811.599    22519817.497          14.750
        16.750
  21356268.719 4  16641248.511 5  24333827.114    24333833.614           6.250
         7.750
  -1073415.510 6  -1736232.787 6  22116439.724    22116444.739          16.000
        18.250
 -16603115.523 6 -12918639.445 6  20834436.146    20834441.118          19.750
        19.750
  -1784231.869 4  -1367221.611 5  23852627.356    23852633.196           6.500
         6.750
   3037026.921 6   1767759.235 6  22977033.536    22977039.544          13.250
        12.750
 99  3  3  2 33 30.0010000  0  6G17G 5G30G 6G26G10
 -10665316.484 6  -8287190.839 6  22515891.372    22515897.337          14.500
        16.750
  21415035.330 4  16687040.670 5  24345010.317    24345016.618           6.250
         7.750
  -1029244.007 6  -1701813.438 6  22124845.231    22124850.333          16.000
        18.250
 -16611238.894 6 -12924969.335 6  20832890.302    20832895.349          19.750
        20.000
  -1819926.312 4  -1395035.430 5  23845834.708    23845840.341           6.500
         6.750
   3085592.863 6   1805602.827 6  22986275.560    22986281.423          13.500
        12.500
 99  3  3  2 33 45.0010000  0  6G17G 5G30G 6G26G10
 -10685870.337 6  -8303206.803 6  22511980.083    22511985.954          14.750
        16.750
  21473811.959 4  16732840.635 5  24356195.005    24356201.157           6.250
         8.000
   -984975.089 6  -1667318.176 6  22133269.278    22133274.247          16.000
        18.250
 -16619272.905 6 -12931229.589 6  20831361.356    20831366.505          19.750
        20.000
  -1855584.094 4  -1422820.695 5  23839049.880    23839055.606           7.250
         7.000
   3134231.668 6   1843503.199 6  22995531.106    22995537.017          13.250
        12.750
 99  3  3  2 34  0.0010000  0  6G17G 5G30G 6G26G10
 -10706374.304 6  -8319183.901 6  22508078.224    22508084.192          14.750
        17.000
  21532596.266 4  16778646.587 5  24367381.591    24367387.278           6.250
         7.750
   -940607.987 6  -1632746.417 6  22141712.106    22141717.138          16.000
        18.250
 -16627217.230 6 -12937419.959 6  20829849.560    20829854.700          19.500
        20.000
  -1891200.975 4  -1450574.094 5  23832272.060    23832277.286           7.250
         7.000
   3182941.622 6   1881459.008 6  23004800.380    23004806.095          13.500
        12.500
 99  3  3  2 34 15.0010000  0  6G17G 5G30G 6G26G10
 -10726825.689 6  -8335120.020 6  22504186.513    22504192.427          14.750
        17.000
  21591389.506 4  16824459.498 5  24378569.247    24378575.517           6.500
         8.000
   -896140.934 6  -1598096.766 6  22150173.974    22150178.970          16.250
        18.750
 -16635070.778 6 -12943539.597 6  20828355.192    20828360.360          19.750
        20.000
  -1926774.044 4  -1478293.337 5  23825502.466    23825508.267           7.250
         7.250
   3231722.800 6   1919470.324 6  23014083.013    23014088.825          13.500
        12.500
 99  3  3  2 34 30.0010000  0  6G17G 5G30G 6G26G10
 -10747220.002 6  -8351011.670 6  22500305.442    22500311.423          14.750
        17.000
  21650194.941 4  16870281.898 5  24389759.630    24389765.997           6.250
         8.000
   -851573.267 6  -1563368.714 6  22158655.036    22158659.919          16.250
        18.750
 -16642831.499 6 -12949586.899 6  20826878.419    20826883.521          19.750
        20.000
  -1962299.352 4  -1505975.385 5  23818742.255    23818747.685           7.250
         7.250
   3280578.916 6   1957540.020 6  23023380.028    23023385.872          13.500
        12.250
 99  3  3  2 34 45.0010000  0  6G17G 5G30G 6G26G10
 -10767562.106 6  -8366862.635 6  22496434.630    22496440.571          14.750
        17.250
  21709008.354 4  16916110.535 5  24400951.403    24400957.849           6.250
         7.750
   -806913.015 6  -1528568.516 6  22167153.435    22167158.411          16.000
        18.500
 -16650506.525 6 -12955567.430 6  20825417.896    20825422.958          19.750
        19.750
  -1997781.241 5  -1533623.592 5  23811989.950    23811996.169           7.500
         7.250
   3329503.015 6   1995662.699 6  23032690.005    23032695.880          13.250
        12.500
 99  3  3  2 35  0.0010000  0  6G17G 5G30G 6G26G10
 -10787849.325 6  -8382670.847 6  22492573.997    22492580.017          14.750
        17.250
  21767831.102 4  16961946.443 5  24412145.247    24412151.294           6.250
         7.750
   -762158.231 6  -1493694.665 6  22175670.083    22175675.060          16.000
        18.500
 -16658093.851 7 -12961479.623 6  20823974.114    20823979.173          20.000
        19.750
  -2033214.864 5  -1561234.189 5  23805247.278    23805252.626           7.500
         7.250
   3378495.867 6   2033838.946 6  23042013.044    23042018.935          13.250
        12.250
 99  3  3  2 35 15.0010000  0  6G17G 5G30G 6G26G10
 -10808082.475 6  -8398436.913 6  22488723.716    22488729.728          14.750
        17.250
  21826662.255 4  17007788.890 5  24423340.263    24423346.325           6.250
         7.500
   -717309.838 6  -1458747.869 6  22184204.513    22184209.454          16.000
        18.750
 -16665597.008 7 -12967326.222 6  20822546.208    20822551.274          20.000
        19.750
  -2068601.982 5  -1588808.554 5  23798513.302    23798519.091           7.500
         7.500
   3427555.297 6   2072067.083 6  23051348.739    23051354.528          13.250
        12.250
 99  3  3  2 35 30.0010000  0  6G17G 5G30G 6G26G10
 -10828263.130 6  -8414162.073 6  22484883.396    22484889.462          14.750
        17.500
  21885500.151 4  17053636.610 5  24434536.747    24434542.528           6.250
         7.500
   -672367.649 6  -1423727.983 6  22192756.731    22192761.708          16.250
        18.500
 -16673012.726 7 -12973104.693 6  20821135.044    20821139.981          20.000
        19.750
  -2103943.119 5  -1616347.078 5  23791788.200    23791793.853           7.500
         7.750
   3476684.245 6   2110349.380 6  23060697.669    23060703.552          13.250
        12.250
 99  3  3  2 35 45.0010000  0  6G17G 5G30G 6G26G10
 -10848392.882 6  -8429847.567 6  22481052.817    22481058.821          14.750
        17.500
  21944339.916 3  17099485.772 5  24445733.396    24445739.548           6.000
         7.500
   -627333.553 6  -1388636.477 6  22201326.388    22201331.349          16.250
        19.000
 -16680340.660 7 -12978814.754 6  20819740.810    20819745.798          20.000
        19.750
  -2139238.204 4  -1643849.728 5  23785071.599    23785077.677           7.250
         7.750
   3525884.786 6   2148687.467 6  23070060.247    23070066.060          13.250
        12.250
 99  3  3  2 36  0.0010000  0  6G17G 5G30G 6G26G10
 -10868475.243 6  -8445496.135 6  22477231.396    22477237.505          14.750
        17.750
  22003179.405 3  17145334.736 5  24456930.474    24456936.450           5.750
         7.250
   -582211.467 6  -1353476.416 6  22209912.810    22209917.856          16.250
        18.750
 -16687586.047 7 -12984460.500 6  20818361.927    20818366.966          20.000
        19.750
  -2174489.429 4  -1671318.195 5  23778363.505    23778369.384           7.250
         7.500
   3575153.890 6   2187078.979 6  23079435.825    23079441.603          13.000
        12.250
 99  3  3  2 36 15.0010000  0  6G17G 5G30G 6G26G10
 -10888510.007 6  -8461107.616 6  22473418.872    22473424.966          14.750
        18.000
  22062022.375 3  17191186.392 5  24468127.708    24468133.938           5.750
         7.500
   -536998.049 6  -1318245.181 6  22218516.700    22218521.665          16.500
        18.750
 -16694746.647 7 -12990040.176 6  20816999.364    20817004.271          20.250
        19.750
  -2209693.812 4  -1698750.154 5  23771664.606    23771670.138           7.250
         7.750
   3624495.255 6   2225526.800 6  23088825.130    23088830.966          13.000
        12.000
 99  3  3  2 36 30.0010000  0  6G17G 5G30G 6G26G10
 -10908502.013 6  -8476685.784 6  22469614.536    22469620.513          14.750
        17.750
  22120865.201 3  17237037.950 5  24479324.763    24479331.458           5.750
         7.250
   -491697.544 6  -1282946.088 6  22227137.138    22227142.130          16.500
        18.750
 -16701823.546 7 -12995554.637 6  20815652.747    20815657.501          20.250
        19.500
  -2244853.851 4  -1726147.567 5  23764973.739    23764979.231           7.250
         7.750
   3673909.972 6   2264031.775 6  23098228.427    23098234.247          13.000
        12.000
 99  3  3  2 36 45.0010000  0  6G17G 5G30G 6G26G10
 -10928452.817 6  -8492231.839 6  22465818.005    22465824.079          14.750
        18.000
  22179709.254 3  17282890.457 5  24490522.919    24490529.048           5.500
         7.250
   -446308.265 6  -1247577.820 6  22235774.380    22235779.317          16.500
        18.250
 -16708813.881 7 -13001001.637 6  20814322.466    20814327.356          20.250
        19.500
  -2279967.994 5  -1753509.223 5  23758292.005    23758297.384           7.500
         7.750
   3723401.060 6   2302596.262 5  23107646.208    23107652.075          13.000
        11.750
 99  3  3  2 37  0.0010000  0  6G17G 5G30G 6G26G10
 -10948364.494 6  -8507747.413 6  22462028.888    22462034.899          15.000
        18.000
  22238551.986 3  17328741.933 5  24501719.864    24501726.587           5.500
         7.250
   -400830.189 6  -1212140.365 6  22244428.599    22244433.595          16.500
        18.250
 -16715718.264 7 -13006381.665 6  20813008.661    20813013.524          20.250
        19.500
  -2315036.926 4  -1780835.648 5  23751618.521    23751624.060           7.250
         7.500
   3772969.127 6   2341220.737 5  23117078.841    23117084.657          13.000
        11.750
 99  3  3  2 37 15.0010000  0  6G17G 5G30G 6G26G10
 -10968239.386 6  -8523234.323 6  22458246.896    22458252.833          15.000
        18.000
  22297388.069 3  17374588.222 5  24512916.325    24512922.216           5.500
         7.250
   -355265.565 6  -1176635.461 6  22253099.239    22253104.196          16.000
        18.250
 -16722540.085 7 -13011697.362 6  20811710.435    20811715.235          20.500
        19.500
  -2350064.776 5  -1808130.044 5  23744953.208    23744958.521           7.500
         7.500
   3822612.598 6   2379903.967 5  23126525.466    23126531.556          12.750
        11.750
 99  3  3  2 37 30.0010000  0  6G17G 5G30G 6G26G10
 -10988076.897 6  -8538692.100 6  22454471.825    22454477.860          15.000
        18.000
  22356217.192 3  17420429.101 5  24524110.911    24524117.192           5.500
         7.250
   -309615.224 6  -1141063.765 6  22261786.075    22261791.032          16.000
        18.000
 -16729278.797 7 -13016948.293 6  20810428.114    20810432.911          20.500
        19.500
  -2385051.356 5  -1835392.307 5  23738295.552    23738300.614           7.750
         7.250
   3872330.719 6   2418645.357 5  23135986.606    23135992.513          12.750
        11.750
 99  3  3  2 37 45.0010000  0  6G17G 5G30G 6G26G10
 -11007874.792 6  -8554119.012 6  22450704.536    22450710.431          15.000
        17.750
  22415040.409 3  17466265.356 5  24535304.630    24535310.720           5.500
         7.000
   -263881.194 6  -1105426.853 6  22270489.052    22270494.060          16.500
        18.000
 -16735931.774 7 -13022132.416 6  20809162.106    20809166.872          20.500
        19.250
  -2419992.225 5  -1862618.931 5  23731646.169    23731651.450           7.750
         7.000
   3922123.655 6   2457445.047 5  23145461.989    23145467.778          13.000
        11.500
 99  3  3  2 38  0.0010000  0  6G17G 5G30G 6G26G10
 -11027631.848 6  -8569514.100 6  22446944.739    22446950.685          15.000
        17.750
  22473858.323 3  17512097.500 5  24546497.614    24546503.450           5.750
         6.750
   -218065.425 6  -1069726.255 6  22279207.505    22279212.392          16.250
        18.000
 -16742500.883 7 -13027251.190 6  20807912.114    20807916.759          20.750
        19.250
  -2454885.159 5  -1889808.221 5  23725006.177    23725011.341           7.750
         7.000
   3971986.736 6   2496299.399 5  23154950.669    23154956.321          12.750
        11.500
 99  3  3  2 38 15.0010000  0  6G17G 5G30G 6G26G10
 -11047348.374 6  -8584877.595 6  22443192.731    22443198.669          15.000
        17.750
  22532669.790 3  17557924.609 5  24557688.817    24557695.060           5.750
         6.750
   -172170.969 6  -1033964.338 6  22287940.896    22287945.771          16.250
        17.750
 -16748985.043 7 -13032303.766 6  20806678.208    20806682.829          20.750
        19.000
  -2489731.086 5  -1916960.876 5  23718374.950    23718380.337           7.750
         6.750
   4021917.200 6   2535206.257 5  23164451.950    23164457.630          12.750
        11.250
 99  3  3  2 38 30.0010000  0  6G17G 5G30G 6G26G10
 -11067023.639 6  -8600208.953 6  22439448.708    22439454.614          15.000
        17.750
  22591470.981 3  17603743.720 5  24568878.396    24568884.634           5.750
         6.750
   -126200.534 6   -998143.221 6  22296688.810    22296693.872          16.000
        17.750
 -16755382.966 7 -13037289.151 6  20805460.653    20805465.263          20.750
        18.750
  -2524529.300 5  -1944076.352 5  23711753.200    23711758.915           8.000
         7.000
   4071912.691 6   2574163.781 5  23173965.864    23173971.614          13.000
        11.250
 99  3  3  2 38 45.0010000  0  6G17G 5G30G 6G26G10
 -11086654.857 6  -8615505.987 6  22435713.044    22435718.841          15.250
        17.500
  22650264.713 3  17649557.029 5  24580066.708    24580072.735           5.750
         6.750
    -80153.854 6   -962262.693 6  22305451.208    22305456.048          16.000
        17.500
 -16761692.226 7 -13042205.435 6  20804260.067    20804264.688          20.750
        18.750
  -2559278.064 5  -1971153.295 5  23705140.771    23705145.903           8.250
         7.250
   4121972.454 6   2613171.398 5  23183491.903    23183497.642          12.500
        11.250
 99  3  3  2 39  0.0010000  0  6G17G 5G30G 6G26G10
 -11106240.039 6  -8630767.146 6  22431986.130    22431991.942          15.000
        17.500
  22709053.256 3  17695366.271 5  24591253.192    24591259.747           5.500
         6.750
    -34029.437 6   -926321.588 6  22314228.481    22314233.271          16.250
        17.500
 -16767913.164 7 -13047052.912 6  20803076.036    20803080.634          20.500
        18.750
  -2593978.054 5  -1998192.239 5  23698537.521    23698543.005           8.250
         6.750
   4172092.217 6   2652225.762 5  23193029.239    23193035.009          12.500
        11.000
 99  3  3  2 39 15.0010000  0  6G17G 5G30G 6G26G10
 -11125773.945 6  -8645988.346 6  22428268.786    22428274.638          15.000
        17.500
  22767839.144 3  17741173.455 5  24602440.185    24602446.478           5.000
         6.500
     12173.764 6   -890319.094 6  22323020.591    22323025.438          16.000
        17.000
 -16774045.059 7 -13051830.997 6  20801909.278    20801913.845          20.750
        18.750
  -2628626.828 5  -2025191.269 5  23691944.411    23691949.438           8.250
         7.250
   4222271.517 6   2691326.513 5  23202578.130    23202583.868          12.500
        11.000
 99  3  3  2 39 30.0010000  0  6G17G 5G30G 6G26G10
 -11145259.305 6  -8661171.719 6  22424560.888    22424566.634          15.000
        17.500
  22826623.425 3  17786979.410 5  24613626.466    24613632.626           5.000
         6.500
     58454.870 6   -854255.885 6  22331827.606    22331832.376          16.000
        17.250
 -16780087.859 7 -13056539.661 6  20800759.294    20800764.021          20.500
        18.750
  -2663223.830 5  -2052149.945 5  23685360.653    23685366.188           8.500
         7.250
   4272507.685 6   2730471.579 5  23212137.724    23212143.388          12.250
        11.000
 99  3  3  2 39 45.0010000  0  5G17G30G 6G26G10
 -11164696.631 6  -8676317.676 6  22420861.989    22420867.802          15.000
        17.500
    104814.027 6   -818131.868 6  22340649.341    22340654.231          16.000
        17.750
 -16786038.104 7 -13061176.197 6  20799627.075    20799631.708          20.750
        18.500
  -2697767.408 5  -2079067.008 5  23678786.872    23678792.153           8.250
         7.500
   4322799.501 5   2769660.003 5  23221707.778    23221713.489          11.750
        10.750
 99  3  3  2 40  0.0010000  0  5G17G30G 6G26G10
 -11184085.873 6  -8691426.151 6  22417172.388    22417178.079          15.250
        17.000
    151250.509 6   -781947.601 6  22349486.028    22349490.896          16.000
        17.500
 -16791897.882 7 -13065742.250 6  20798511.817    20798516.466          20.750
        18.500
  -2732261.547 5  -2105945.530 5  23672223.224    23672228.657           8.250
         7.750
   4373145.168 5   2808890.392 5  23231288.083    23231293.927          11.750
        10.750
 99  3  3  2 40 15.0010000  0  5G17G30G 6G26G10
 -11203422.209 6  -8706493.402 6  22413492.755    22413498.478          15.250
        17.000
    197769.866 6   -745698.750 6  22358338.263    22358343.177          15.750
        17.500
 -16797664.201 7 -13070235.471 6  20797414.536    20797419.271          20.500
        18.500
  -2766707.635 5  -2132786.626 5  23665668.333    23665673.567           8.250
         7.500
   4423549.734 5   2848166.674 5  23240879.810    23240885.755          11.750
        10.750
 99  3  3  2 40 30.0010000  0  5G17G30G 6G26G10
 -11222703.002 6  -8721517.372 6  22409823.575    22409829.317          15.000
        17.000
    244376.990 6   -709381.511 6  22367207.466    22367212.396          15.750
        17.500
 -16803334.358 7 -13074653.762 6  20796335.630    20796340.263          20.500
        18.500
  -2801105.403 5  -2159590.056 5  23659122.263    23659128.063           8.000
         7.750
   4474020.271 5   2887494.377 5  23250483.911    23250489.935          11.500
        11.000
 99  3  3  2 40 45.0010000  0  5G17G30G 6G26G10
 -11241932.076 6  -8736501.046 6  22406164.489    22406170.185          15.000
        17.000
    291073.630 6   -672994.520 6  22376093.560    22376098.376          15.500
        17.500
 -16808909.757 7 -13078998.221 6  20795274.685    20795279.282          20.500
        18.250
  -2835458.500 5  -2186358.676 5  23652585.341    23652590.911           8.250
         8.000
   4524556.144 5   2926872.968 5  23260100.575    23260106.642          11.500
        10.750
 99  3  3  2 41  0.0010000  0  5G17G30G 6G26G10
 -11261111.664 6  -8751446.163 6  22402514.708    22402520.271          15.000
        16.500
    337860.271 6   -636537.395 6  22384996.653    22385001.536          15.500
        17.500
 -16814390.246 7 -13083268.716 6  20794231.778    20794236.294          20.500
        18.500
  -2869771.055 5  -2213095.711 5  23646055.896    23646061.306           8.250
         8.000
   4575159.150 5   2966303.883 5  23269730.005    23269736.075          11.250
        10.750
 99  3  3  2 41 15.0010000  0  5G17G30G 6G26G10
 -11280240.170 6  -8766351.466 6  22398874.638    22398880.341          14.750
        17.000
    384736.449 6   -600010.500 6  22393916.942    22393921.786          15.750
        17.750
 -16819774.792 7 -13087464.451 6  20793207.036    20793211.563          20.500
        18.250
  -2904041.086 5  -2239799.616 5  23639534.536    23639540.075           8.250
         8.250
   4625831.713 5   3005788.988 5  23279372.661    23279378.630          11.250
        10.500
 99  3  3  2 41 30.0010000  0  5G17G30G 6G26G10
 -11299322.676 6  -8781220.932 6  22395243.239    22395248.880          15.000
        16.750
    431699.859 6   -563415.636 6  22402853.685    22402858.669          15.250
        17.250
 -16825063.326 7 -13091585.367 6  20792200.677    20792205.185          20.500
        18.000
  -2938269.654 5  -2266471.195 5  23633020.942    23633026.470           8.500
         8.250
   4676574.101 5   3045328.523 5  23289028.646    23289034.731          11.250
        10.750
 99  3  3  2 41 45.0010000  0  5G17G30G 6G26G10
 -11318356.456 6  -8796052.430 6  22391621.341    22391626.919          15.000
        16.750
    478755.361 6   -526749.014 6  22411808.177    22411813.157          15.500
        17.500
 -16830250.217 7 -13095627.092 6  20791213.653    20791218.192          20.500
        18.250
  -2972454.032 5  -2293108.342 5  23626515.731    23626521.341           8.250
         8.250
   4727390.078 5   3084925.384 5  23298698.505    23298704.790          11.000
        10.500
 99  3  3  2 42  0.0010000  0  5G17G30G 6G26G10
 -11337342.780 6  -8810846.939 6  22388008.419    22388013.864          15.000
        17.000
    525899.162 6   -490013.586 6  22420779.302    22420784.122          15.500
        17.250
 -16835341.922 7 -13099594.637 6  20790244.685    20790249.177          20.500
        18.000
  -3006597.677 5  -2319713.745 5  23620018.599    23620024.021           8.250
         8.500
   4778277.566 5   3124577.971 5  23308382.278    23308388.286          11.250
        10.500
 99  3  3  2 42 15.0010000  0  5G17G30G 6G26G10
 -11356282.598 6  -8825605.214 6  22384404.435    22384409.927          15.250
        17.250
    573130.784 6   -453209.720 6  22429767.122    22429772.060          15.500
        17.500
 -16840339.012 7 -13103488.464 6  20789293.856    20789298.274          20.750
        18.250
  -3040700.349 5  -2346287.245 5  23613528.716    23613534.282           8.250
         8.500
   4829238.956 5   3164288.147 5  23318079.771    23318085.806          11.000
        10.500
 99  3  3  2 42 30.0010000  0  5G17G30G 6G26G10
 -11375183.515 6  -8840333.182 6  22380807.521    22380813.290          15.250
        17.500
    620446.667 6   -416340.200 6  22438771.067    22438776.009          15.250
        17.250
 -16845241.258 7 -13107308.382 6  20788360.864    20788365.290          21.000
        18.000
  -3074760.502 5  -2372827.576 5  23607047.427    23607053.106           8.250
         8.250
   4880271.431 5   3204053.709 5  23327791.021    23327797.271          11.000
        10.750
 99  3  3  2 42 45.0010000  0  5G17G30G 6G26G10
 -11394047.142 6  -8855032.093 6  22377217.911    22377223.450          15.750
        17.250
    667845.452 6   -379406.081 6  22447790.849    22447795.774          15.250
        17.500
 -16850049.110 7 -13111054.747 6  20787446.052    20787450.552          20.750
        18.000
  -3108773.473 5  -2399331.178 5  23600574.981    23600580.485           8.250
         8.500
   4931371.240 5   3243871.747 5  23337514.685    23337520.899          10.750
        10.000
 99  3  3  2 43  0.0010000  0  5G17G30G 6G26G10
 -11412873.316 6  -8869701.815 6  22373635.466    22373640.954          15.500
        17.500
    715322.477 6   -342411.002 6  22456825.333    22456830.290          15.250
        17.500
 -16854764.720 7 -13114729.241 6  20786548.771    20786553.177          21.000
        18.250
  -3142739.219 5  -2425797.949 5  23594111.341    23594116.946           8.250
         8.500
   4982532.310 5   3283737.506 5  23347250.489    23347256.548          11.000
        10.250
 99  3  3  2 43 15.0010000  0  5G17G30G 6G26G10
 -11431660.447 6  -8884341.118 6  22370060.356    22370065.810          15.500
        17.500
    762879.127 6   -305353.864 6  22465875.052    22465880.114          15.000
        17.500
 -16859387.217 7 -13118331.175 6  20785669.153    20785673.700          21.000
        18.250
  -3176648.117 5  -2452220.453 5  23587658.888    23587664.231           8.250
         8.250
   5033756.301 5   3323652.307 5  23356998.138    23357004.149          10.750
        10.000
 99  3  3  2 43 30.0010000  0  5G17G30G 6G26G10
 -11450407.452 6  -8898949.150 6  22366492.942    22366498.579          15.500
        17.500
    810517.599 6   -268232.982 6  22474940.364    22474945.329          15.000
        17.250
 -16863918.517 7 -13121862.044 6  20784806.739    20784811.251          21.000
        18.000
  -3210495.671 5  -2478595.139 5  23581217.755    23581223.255           8.250
         8.250
   5085042.482 5   3363615.556 5  23366757.489    23366763.579          10.750
        10.000
 99  3  3  2 43 45.0010000  0  5G17G30G 6G26G10
 -11469113.118 6  -8913524.974 6  22362933.302    22362938.974          15.750
        17.750
    858240.577 6   -231046.252 6  22484021.778    22484026.712          15.000
        17.000
 -16868357.889 7 -13125321.284 6  20783962.013    20783966.462          21.000
        18.000
  -3244280.598 5  -2504921.034 5  23574788.661    23574794.524           8.000
         8.250
   5136391.281 5   3403627.616 5  23376528.903    23376535.028          10.750
        10.000
 99  3  3  2 44  0.0010000  0  5G17G30G 6G26G10
 -11487774.918 6  -8928066.615 6  22359382.028    22359387.798          15.750
        18.000
    906045.235 6   -193795.865 6  22493118.677    22493123.653          14.750
        17.000
 -16872708.808 7 -13128711.591 6  20783134.091    20783138.724          21.000
        18.250
  -3278002.629 5  -2531197.905 5  23568371.255    23568376.974           7.750
         8.250
   5187802.340 5   3443688.176 5  23386312.005    23386318.161          10.750
        10.500
 99  3  3  2 44 15.0010000  0  5G17G30G 6G26G10
 -11506394.561 6  -8942575.397 6  22355838.849    22355844.622          15.500
        18.000
    953927.875 6   -156484.719 6  22502230.403    22502235.302          14.750
        17.000
 -16876971.934 7 -13132033.495 6  20782322.739    20782327.306          21.250
        18.250
  -3311663.095 5  -2557426.808 5  23561966.036    23561971.763           7.750
         8.250
   5239273.323 5   3483795.431 5  23396106.575    23396113.118          10.500
        10.500
 99  3  3  2 44 30.0010000  0  5G17G30G 6G26G10
 -11524970.269 6  -8957049.954 6  22352303.958    22352309.739          15.750
        17.750
   1001888.414 6   -119112.874 6  22511356.919    22511361.778          14.750
        16.750
 -16881144.798 7 -13135285.068 6  20781528.700    20781533.181          21.000
        18.250
  -3345260.439 5  -2583606.539 5  23555572.544    23555578.333           7.500
         8.250
   5290799.973 5   3523946.074 5  23405911.716    23405918.282          10.500
        10.750
 99  3  3  2 44 45.0010000  0  5G17G30G 6G26G10
 -11543494.421 6  -8971484.333 6  22348778.935    22348784.802          15.750
        18.250
   1049928.682 6    -81678.894 6  22520498.810    22520503.688          15.000
        16.750
 -16885225.908 7 -13138465.146 6  20780752.122    20780756.614          21.250
        18.250
  -3378788.124 5  -2609731.973 5  23549192.442    23549198.009           7.500
         8.500
   5342382.611 5   3564140.346 5  23415727.622    23415734.087          10.500
        10.500
